Time,TemperatureF,DewpointF,PressureIn,WindDirection,WindDirectionDegrees,WindSpeedMPH,WindSpeedGustMPH,Humidity,HourlyPrecipIn,Conditions,Clouds,dailyrainin,SoftwareType,DateUTC
2013-03-14 00:00:00,45.9,21.7,30.18,NNE,16,4.0,4.0,38,0.00,,---,0.00,VWS V14.01,2013-03-14 04:00:00,
2013-03-14 00:05:00,45.7,21.5,30.18,NW,320,5.8,5.8,38,0.00,,---,0.00,VWS V14.01,2013-03-14 04:05:00,
2013-03-14 00:10:00,45.5,21.4,30.18,West,278,12.8,12.8,38,0.00,,---,0.00,VWS V14.01,2013-03-14 04:10:00,
2013-03-14 00:15:00,45.3,21.2,30.18,NNW,342,5.4,5.4,38,0.00,,---,0.00,VWS V14.01,2013-03-14 04:15:00,
2013-03-14 00:20:00,45.1,21.1,30.18,NW,325,4.0,4.0,38,0.00,,---,0.00,VWS V14.01,2013-03-14 04:20:00,
2013-03-14 00:25:00,45.1,21.1,30.18,WNW,289,5.4,5.4,38,0.00,,---,0.00,VWS V14.01,2013-03-14 04:25:00,
2013-03-14 00:30:00,45.1,21.1,30.18,WNW,288,3.6,3.6,38,0.00,,---,0.00,VWS V14.01,2013-03-14 04:30:00,
2013-03-14 00:35:00,45.0,20.9,30.18,North,353,5.8,5.8,38,0.00,,---,0.00,VWS V14.01,2013-03-14 04:35:00,
2013-03-14 00:40:00,44.8,20.7,30.18,NNW,345,3.1,3.1,38,0.00,,---,0.00,VWS V14.01,2013-03-14 04:40:00,
2013-03-14 00:45:00,44.8,20.7,30.18,NNE,19,4.0,4.0,38,0.00,,---,0.00,VWS V14.01,2013-03-14 04:45:00,
2013-03-14 00:50:00,44.6,20.6,30.18,NNE,19,4.0,4.0,38,0.00,,---,0.00,VWS V14.01,2013-03-14 04:50:00,
2013-03-14 00:55:00,44.6,20.6,30.18,NNW,333,4.0,4.0,38,0.00,,---,0.00,VWS V14.01,2013-03-14 04:55:00,
2013-03-14 00:56:00,44.6,20.6,30.18,North,7,8.1,8.1,38,0.00,,---,0.00,VWS V14.01,2013-03-14 04:56:00,
2013-03-14 01:00:00,44.4,20.4,30.18,WNW,285,6.3,6.3,38,0.00,,---,0.00,VWS V14.01,2013-03-14 05:00:00,
2013-03-14 01:01:00,44.4,20.4,30.18,WNW,285,6.3,6.3,38,0.00,,---,0.00,VWS V14.01,2013-03-14 05:01:00,
2013-03-14 01:05:00,44.2,20.3,30.18,NNW,346,8.1,8.1,38,0.00,,---,0.00,VWS V14.01,2013-03-14 05:05:00,
2013-03-14 01:06:00,44.2,20.3,30.18,NNW,346,8.1,8.1,38,0.00,,---,0.00,VWS V14.01,2013-03-14 05:06:00,
2013-03-14 01:10:00,44.1,20.1,30.18,NW,326,5.4,5.4,38,0.00,,---,0.00,VWS V14.01,2013-03-14 05:10:00,
2013-03-14 01:11:00,44.1,20.1,30.18,NW,326,5.4,5.4,38,0.00,,---,0.00,VWS V14.01,2013-03-14 05:11:00,
2013-03-14 01:15:00,44.1,20.1,30.18,North,0,4.9,4.9,38,0.00,,---,0.00,VWS V14.01,2013-03-14 05:15:00,
2013-03-14 01:16:00,44.1,20.1,30.18,North,0,4.9,4.9,38,0.00,,---,0.00,VWS V14.01,2013-03-14 05:16:00,
2013-03-14 01:20:00,43.7,19.8,30.18,WNW,302,4.5,4.5,38,0.00,,---,0.00,VWS V14.01,2013-03-14 05:20:00,
2013-03-14 01:21:00,43.7,19.8,30.18,WNW,302,4.5,4.5,38,0.00,,---,0.00,VWS V14.01,2013-03-14 05:21:00,
2013-03-14 01:25:00,43.7,19.8,30.18,NNW,331,3.1,3.1,38,0.00,,---,0.00,VWS V14.01,2013-03-14 05:25:00,
2013-03-14 01:26:00,43.5,19.6,30.18,NNW,331,3.1,3.1,38,0.00,,---,0.00,VWS V14.01,2013-03-14 05:26:00,
2013-03-14 01:30:00,43.5,19.6,30.18,NNW,328,4.9,4.9,38,0.00,,---,0.00,VWS V14.01,2013-03-14 05:30:00,
2013-03-14 01:31:00,43.5,19.6,30.18,NW,318,4.9,4.9,38,0.00,,---,0.00,VWS V14.01,2013-03-14 05:31:00,
2013-03-14 01:32:00,43.5,19.6,30.18,NW,318,4.9,4.9,38,0.00,,---,0.00,VWS V14.01,2013-03-14 05:32:00,
2013-03-14 01:35:00,43.5,19.6,30.18,NNW,336,8.1,8.1,38,0.00,,---,0.00,VWS V14.01,2013-03-14 05:35:00,
2013-03-14 01:36:00,43.2,19.3,30.18,WNW,286,3.6,3.6,38,0.00,,---,0.00,VWS V14.01,2013-03-14 05:36:00,
2013-03-14 01:40:00,43.0,19.1,30.18,WNW,286,3.6,3.6,38,0.00,,---,0.00,VWS V14.01,2013-03-14 05:40:00,
2013-03-14 01:42:00,43.0,19.1,30.18,WNW,286,3.6,3.6,38,0.00,,---,0.00,VWS V14.01,2013-03-14 05:42:00,
2013-03-14 01:45:00,42.8,19.0,30.18,NW,316,3.6,3.6,38,0.00,,---,0.00,VWS V14.01,2013-03-14 05:45:00,
2013-03-14 01:47:00,42.8,19.0,30.18,NNW,331,3.1,3.6,38,0.00,,---,0.00,VWS V14.01,2013-03-14 05:47:00,
2013-03-14 01:50:00,42.4,19.2,30.18,NW,319,3.6,3.6,39,0.00,,---,0.00,VWS V14.01,2013-03-14 05:50:00,
2013-03-14 01:52:00,42.4,19.2,30.18,NW,306,3.1,3.1,39,0.00,,---,0.00,VWS V14.01,2013-03-14 05:52:00,
2013-03-14 01:55:00,42.4,19.2,30.18,NW,306,3.1,3.1,39,0.00,,---,0.00,VWS V14.01,2013-03-14 05:55:00,
2013-03-14 01:57:00,42.4,19.2,30.18,NW,306,3.1,3.1,39,0.00,,---,0.00,VWS V14.01,2013-03-14 05:57:00,
2013-03-14 02:00:00,42.6,19.4,30.18,SW,232,3.1,3.1,39,0.00,,---,0.00,VWS V14.01,2013-03-14 06:00:00,
2013-03-14 02:02:00,42.6,19.4,30.18,SW,232,3.1,3.1,39,0.00,,---,0.00,VWS V14.01,2013-03-14 06:02:00,
2013-03-14 02:05:00,42.6,19.4,30.18,WNW,285,3.1,3.1,39,0.00,,---,0.00,VWS V14.01,2013-03-14 06:05:00,
2013-03-14 02:07:00,42.8,19.0,30.18,WNW,285,3.1,3.1,38,0.00,,---,0.00,VWS V14.01,2013-03-14 06:07:00,
2013-03-14 02:11:00,42.8,19.0,30.18,WNW,285,3.1,3.1,38,0.00,,---,0.00,VWS V14.01,2013-03-14 06:11:00,
2013-03-14 02:12:00,42.8,19.0,30.18,WNW,292,4.0,4.0,38,0.00,,---,0.00,VWS V14.01,2013-03-14 06:12:00,
2013-03-14 02:13:00,42.8,19.0,30.18,WNW,292,4.0,4.0,38,0.00,,---,0.00,VWS V14.01,2013-03-14 06:13:00,
2013-03-14 02:16:00,42.8,19.0,30.18,NW,325,2.7,4.9,38,0.00,,---,0.00,VWS V14.01,2013-03-14 06:16:00,
2013-03-14 02:17:00,42.8,19.0,30.18,NW,325,2.7,2.7,38,0.00,,---,0.00,VWS V14.01,2013-03-14 06:17:00,
2013-03-14 02:18:00,42.8,19.0,30.18,NW,325,2.7,2.7,38,0.00,,---,0.00,VWS V14.01,2013-03-14 06:18:00,
2013-03-14 02:21:00,42.8,19.0,30.21,NNW,341,3.6,3.6,38,0.00,,---,0.00,VWS V14.01,2013-03-14 06:21:00,
2013-03-14 02:22:00,42.8,19.0,30.21,NW,318,5.8,5.8,38,0.00,,---,0.00,VWS V14.01,2013-03-14 06:22:00,
2013-03-14 02:23:00,42.8,19.0,30.21,NW,318,5.8,5.8,38,0.00,,---,0.00,VWS V14.01,2013-03-14 06:23:00,
2013-03-14 02:26:00,42.8,19.0,30.21,NW,308,6.3,8.3,38,0.00,,---,0.00,VWS V14.01,2013-03-14 06:26:00,
2013-03-14 02:27:00,42.8,19.0,30.21,NW,308,6.3,6.3,38,0.00,,---,0.00,VWS V14.01,2013-03-14 06:27:00,
2013-03-14 02:28:00,42.8,19.0,30.21,NNW,327,4.9,4.9,38,0.00,,---,0.00,VWS V14.01,2013-03-14 06:28:00,
2013-03-14 02:31:00,42.8,19.0,30.21,North,0,8.1,8.1,38,0.00,,---,0.00,VWS V14.01,2013-03-14 06:31:00,
2013-03-14 02:32:00,42.8,19.0,30.21,North,0,8.1,8.1,38,0.00,,---,0.00,VWS V14.01,2013-03-14 06:32:00,
2013-03-14 02:33:00,42.8,19.0,30.21,NNE,12,5.8,5.8,38,0.00,,---,0.00,VWS V14.01,2013-03-14 06:33:00,
2013-03-14 02:36:00,42.6,19.4,30.21,WNW,283,8.1,8.1,39,0.00,,---,0.00,VWS V14.01,2013-03-14 06:36:00,
2013-03-14 02:37:00,42.6,19.4,30.21,WNW,283,8.1,8.1,39,0.00,,---,0.00,VWS V14.01,2013-03-14 06:37:00,
2013-03-14 02:38:00,42.6,19.4,30.21,NW,326,5.4,5.4,39,0.00,,---,0.00,VWS V14.01,2013-03-14 06:38:00,
2013-03-14 02:41:00,42.6,19.4,30.21,NW,311,4.0,4.0,39,0.00,,---,0.00,VWS V14.01,2013-03-14 06:41:00,
2013-03-14 02:42:00,42.6,19.4,30.21,NW,311,4.0,4.0,39,0.00,,---,0.00,VWS V14.01,2013-03-14 06:42:00,
2013-03-14 02:43:00,42.4,19.2,30.21,NW,316,3.1,3.1,39,0.00,,---,0.00,VWS V14.01,2013-03-14 06:43:00,
2013-03-14 02:47:00,42.4,19.2,30.21,NW,316,3.1,3.1,39,0.00,,---,0.00,VWS V14.01,2013-03-14 06:47:00,
2013-03-14 02:48:00,42.4,19.2,30.21,NW,316,3.1,3.1,39,0.00,,---,0.00,VWS V14.01,2013-03-14 06:48:00,
2013-03-14 02:52:00,42.4,19.2,30.21,NNW,343,3.6,5.8,39,0.00,,---,0.00,VWS V14.01,2013-03-14 06:52:00,
2013-03-14 02:53:00,42.3,19.1,30.21,NW,312,4.0,4.0,39,0.00,,---,0.00,VWS V14.01,2013-03-14 06:53:00,
2013-03-14 02:57:00,42.3,19.1,30.21,WNW,288,4.0,4.0,39,0.00,,---,0.00,VWS V14.01,2013-03-14 06:57:00,
2013-03-14 02:58:00,42.3,19.1,30.21,WNW,288,4.0,4.0,39,0.00,,---,0.00,VWS V14.01,2013-03-14 06:58:00,
2013-03-14 03:02:00,42.1,18.9,30.21,WNW,288,4.0,4.0,39,0.00,,---,0.00,VWS V14.01,2013-03-14 07:02:00,
2013-03-14 03:03:00,42.1,18.9,30.21,WNW,291,3.1,4.0,39,0.00,,---,0.00,VWS V14.01,2013-03-14 07:03:00,
2013-03-14 03:07:00,42.1,18.9,30.21,NNW,346,2.7,2.7,39,0.00,,---,0.00,VWS V14.01,2013-03-14 07:07:00,
2013-03-14 03:08:00,42.1,18.9,30.21,NNW,346,2.7,2.7,39,0.00,,---,0.00,VWS V14.01,2013-03-14 07:08:00,
2013-03-14 03:12:00,41.7,18.6,30.21,NW,314,8.3,8.3,39,0.00,,---,0.00,VWS V14.01,2013-03-14 07:12:00,
2013-03-14 03:13:00,41.7,18.6,30.21,NW,314,8.3,8.3,39,0.00,,---,0.00,VWS V14.01,2013-03-14 07:13:00,
2013-03-14 03:17:00,41.7,18.6,30.21,NW,307,3.6,8.3,39,0.00,,---,0.00,VWS V14.01,2013-03-14 07:17:00,
2013-03-14 03:18:00,41.7,18.6,30.21,NW,321,7.6,7.6,39,0.00,,---,0.00,VWS V14.01,2013-03-14 07:18:00,
2013-03-14 03:22:00,41.5,18.4,30.21,NW,309,6.3,7.6,39,0.00,,---,0.00,VWS V14.01,2013-03-14 07:22:00,
2013-03-14 03:23:00,41.5,18.4,30.21,NW,309,6.3,6.3,39,0.00,,---,0.00,VWS V14.01,2013-03-14 07:23:00,
2013-03-14 03:27:00,41.2,18.1,30.21,North,353,12.8,12.8,39,0.00,,---,0.00,VWS V14.01,2013-03-14 07:27:00,
2013-03-14 03:28:00,41.2,18.1,30.21,North,353,12.8,12.8,39,0.00,,---,0.00,VWS V14.01,2013-03-14 07:28:00,
2013-03-14 03:32:00,41.0,18.0,30.21,WNW,297,8.7,8.7,39,0.00,,---,0.00,VWS V14.01,2013-03-14 07:32:00,
2013-03-14 03:33:00,41.0,18.0,30.21,West,274,8.1,8.7,39,0.00,,---,0.00,VWS V14.01,2013-03-14 07:33:00,
2013-03-14 03:37:00,40.6,17.6,30.21,WNW,298,8.7,8.7,39,0.00,,---,0.00,VWS V14.01,2013-03-14 07:37:00,
2013-03-14 03:38:00,40.6,17.6,30.21,WNW,298,8.7,8.7,39,0.00,,---,0.00,VWS V14.01,2013-03-14 07:38:00,
2013-03-14 03:43:00,40.5,17.5,30.21,North,0,8.1,8.1,39,0.00,,---,0.00,VWS V14.01,2013-03-14 07:43:00,
2013-03-14 03:47:00,40.1,17.1,30.21,NW,308,13.2,13.2,39,0.00,,---,0.00,VWS V14.01,2013-03-14 07:47:00,
2013-03-14 03:48:00,40.1,17.1,30.21,NW,308,13.2,13.2,39,0.00,,---,0.00,VWS V14.01,2013-03-14 07:48:00,
2013-03-14 03:53:00,39.9,17.0,30.21,NNW,344,8.1,8.1,39,0.00,,---,0.00,VWS V14.01,2013-03-14 07:53:00,
2013-03-14 03:58:00,39.6,16.7,30.21,WNW,300,4.9,8.1,39,0.00,,---,0.00,VWS V14.01,2013-03-14 07:58:00,
2013-03-14 04:03:00,39.2,16.3,30.21,NW,320,4.0,4.0,39,0.00,,---,0.00,VWS V14.01,2013-03-14 08:03:00,
2013-03-14 04:04:00,39.2,16.3,30.21,NW,320,4.0,4.0,39,0.00,,---,0.00,VWS V14.01,2013-03-14 08:04:00,
2013-03-14 04:08:00,38.8,16.0,30.21,North,7,8.3,8.3,39,0.00,,---,0.00,VWS V14.01,2013-03-14 08:08:00,
2013-03-14 04:09:00,38.8,16.0,30.21,NW,306,5.8,8.3,39,0.00,,---,0.00,VWS V14.01,2013-03-14 08:09:00,
2013-03-14 04:13:00,38.5,15.7,30.21,WNW,301,4.0,4.0,39,0.00,,---,0.00,VWS V14.01,2013-03-14 08:13:00,
2013-03-14 04:14:00,38.5,15.7,30.21,NNW,348,4.0,8.3,39,0.00,,---,0.00,VWS V14.01,2013-03-14 08:14:00,
2013-03-14 04:18:00,38.3,15.5,30.21,NNW,332,5.4,5.4,39,0.00,,---,0.00,VWS V14.01,2013-03-14 08:18:00,
2013-03-14 04:19:00,38.3,15.5,30.21,NNW,332,5.4,5.4,39,0.00,,---,0.00,VWS V14.01,2013-03-14 08:19:00,
2013-03-14 04:23:00,38.3,15.5,30.21,NW,316,3.6,3.6,39,0.00,,---,0.00,VWS V14.01,2013-03-14 08:23:00,
2013-03-14 04:24:00,38.3,15.5,30.21,NW,316,3.6,3.6,39,0.00,,---,0.00,VWS V14.01,2013-03-14 08:24:00,
2013-03-14 04:28:00,37.9,15.2,30.21,NE,52,5.4,5.4,39,0.00,,---,0.00,VWS V14.01,2013-03-14 08:28:00,
2013-03-14 04:29:00,37.8,15.0,30.21,NW,315,3.6,5.4,39,0.00,,---,0.00,VWS V14.01,2013-03-14 08:29:00,
2013-03-14 04:33:00,37.8,15.0,30.21,WNW,289,5.4,5.4,39,0.00,,---,0.00,VWS V14.01,2013-03-14 08:33:00,
2013-03-14 04:34:00,37.4,14.7,30.21,WNW,289,5.4,5.4,39,0.00,,---,0.00,VWS V14.01,2013-03-14 08:34:00,
2013-03-14 04:38:00,37.2,15.1,30.21,WNW,302,5.8,5.8,40,0.00,,---,0.00,VWS V14.01,2013-03-14 08:38:00,
2013-03-14 04:39:00,37.0,15.0,30.21,WNW,302,5.8,5.8,40,0.00,,---,0.00,VWS V14.01,2013-03-14 08:39:00,
2013-03-14 04:43:00,37.0,15.0,30.21,NW,311,2.7,2.7,40,0.00,,---,0.00,VWS V14.01,2013-03-14 08:43:00,
2013-03-14 04:44:00,37.0,15.0,30.21,NNW,327,5.8,5.8,40,0.00,,---,0.00,VWS V14.01,2013-03-14 08:44:00,
2013-03-14 04:48:00,37.0,15.0,30.21,NNW,327,5.8,5.8,40,0.00,,---,0.00,VWS V14.01,2013-03-14 08:48:00,
2013-03-14 04:49:00,37.0,15.0,30.21,WNW,301,4.0,4.0,40,0.00,,---,0.00,VWS V14.01,2013-03-14 08:49:00,
2013-03-14 04:53:00,37.0,15.0,30.21,West,272,4.0,4.0,40,0.00,,---,0.00,VWS V14.01,2013-03-14 08:53:00,
2013-03-14 04:54:00,36.7,14.6,30.21,West,272,4.0,4.0,40,0.00,,---,0.00,VWS V14.01,2013-03-14 08:54:00,
2013-03-14 04:58:00,36.5,14.5,30.21,NNW,340,7.6,7.6,40,0.00,,---,0.00,VWS V14.01,2013-03-14 08:58:00,
2013-03-14 04:59:00,36.5,14.5,30.21,NNW,340,7.6,7.6,40,0.00,,---,0.00,VWS V14.01,2013-03-14 08:59:00,
2013-03-14 05:03:00,36.3,14.3,30.24,WNW,285,3.6,3.6,40,0.00,,---,0.00,VWS V14.01,2013-03-14 09:03:00,
2013-03-14 05:04:00,36.3,14.3,30.24,WNW,290,8.1,8.1,40,0.00,,---,0.00,VWS V14.01,2013-03-14 09:04:00,
2013-03-14 05:08:00,36.3,14.3,30.24,NNW,335,6.3,6.3,40,0.00,,---,0.00,VWS V14.01,2013-03-14 09:08:00,
2013-03-14 05:09:00,36.3,14.3,30.24,North,0,3.1,3.1,40,0.00,,---,0.00,VWS V14.01,2013-03-14 09:09:00,
2013-03-14 05:13:00,36.1,14.2,30.24,West,261,5.8,5.8,40,0.00,,---,0.00,VWS V14.01,2013-03-14 09:13:00,
2013-03-14 05:14:00,36.1,14.2,30.24,West,261,5.8,5.8,40,0.00,,---,0.00,VWS V14.01,2013-03-14 09:14:00,
2013-03-14 05:18:00,36.1,14.2,30.24,NNW,328,4.9,4.9,40,0.00,,---,0.00,VWS V14.01,2013-03-14 09:18:00,
2013-03-14 05:19:00,36.1,14.2,30.24,NNW,328,4.9,4.9,40,0.00,,---,0.00,VWS V14.01,2013-03-14 09:19:00,
2013-03-14 05:23:00,36.0,14.0,30.24,NNW,339,4.0,4.0,40,0.00,,---,0.00,VWS V14.01,2013-03-14 09:23:00,
2013-03-14 05:24:00,36.0,14.0,30.24,NW,322,4.0,4.0,40,0.00,,---,0.00,VWS V14.01,2013-03-14 09:24:00,
2013-03-14 05:28:00,36.0,14.0,30.24,NW,322,4.0,4.0,40,0.00,,---,0.00,VWS V14.01,2013-03-14 09:28:00,
2013-03-14 05:29:00,35.8,13.8,30.24,NW,322,4.0,4.0,40,0.00,,---,0.00,VWS V14.01,2013-03-14 09:29:00,
2013-03-14 05:30:00,35.8,13.8,30.24,NW,322,4.0,4.0,40,0.00,,---,0.00,VWS V14.01,2013-03-14 09:30:00,
2013-03-14 05:33:00,35.6,13.7,30.24,NW,309,2.7,3.1,40,0.00,,---,0.00,VWS V14.01,2013-03-14 09:33:00,
2013-03-14 05:34:00,35.6,13.7,30.24,NW,309,2.7,3.1,40,0.00,,---,0.00,VWS V14.01,2013-03-14 09:34:00,
2013-03-14 05:35:00,35.6,13.7,30.24,NW,309,2.7,2.7,40,0.00,,---,0.00,VWS V14.01,2013-03-14 09:35:00,
2013-03-14 05:38:00,35.6,13.7,30.24,NNW,331,4.0,4.0,40,0.00,,---,0.00,VWS V14.01,2013-03-14 09:38:00,
2013-03-14 05:39:00,35.6,13.7,30.24,NNW,331,4.0,4.0,40,0.00,,---,0.00,VWS V14.01,2013-03-14 09:39:00,
2013-03-14 05:40:00,35.4,13.5,30.24,NNW,331,4.0,4.0,40,0.00,,---,0.00,VWS V14.01,2013-03-14 09:40:00,
2013-03-14 05:43:00,35.4,13.5,30.24,North,4,8.3,8.3,40,0.00,,---,0.00,VWS V14.01,2013-03-14 09:43:00,
2013-03-14 05:44:00,35.4,13.5,30.24,North,4,8.3,8.3,40,0.00,,---,0.00,VWS V14.01,2013-03-14 09:44:00,
2013-03-14 05:45:00,35.4,13.5,30.24,NNW,335,4.0,8.3,40,0.00,,---,0.00,VWS V14.01,2013-03-14 09:45:00,
2013-03-14 05:49:00,35.1,13.2,30.24,NNW,330,3.1,5.4,40,0.00,,---,0.00,VWS V14.01,2013-03-14 09:49:00,
2013-03-14 05:50:00,35.1,13.2,30.24,WNW,290,3.6,3.6,40,0.00,,---,0.00,VWS V14.01,2013-03-14 09:50:00,
2013-03-14 05:54:00,35.1,13.2,30.24,NW,320,0.0,0.0,40,0.00,,---,0.00,VWS V14.01,2013-03-14 09:54:00,
2013-03-14 05:55:00,34.9,13.0,30.24,NW,320,0.0,0.0,40,0.00,,---,0.00,VWS V14.01,2013-03-14 09:55:00,
2013-03-14 05:59:00,34.7,12.9,30.24,West,273,5.4,5.4,40,0.00,,---,0.00,VWS V14.01,2013-03-14 09:59:00,
2013-03-14 06:00:00,34.5,12.7,30.24,NW,315,2.2,5.4,40,0.00,,---,0.00,VWS V14.01,2013-03-14 10:00:00,
2013-03-14 06:04:00,34.5,12.7,30.24,WNW,282,2.7,2.7,40,0.00,,---,0.00,VWS V14.01,2013-03-14 10:04:00,
2013-03-14 06:05:00,34.5,12.7,30.24,WNW,282,2.7,2.7,40,0.00,,---,0.00,VWS V14.01,2013-03-14 10:05:00,
2013-03-14 06:09:00,34.2,12.4,30.24,NNW,340,3.6,5.8,40,0.00,,---,0.00,VWS V14.01,2013-03-14 10:09:00,
2013-03-14 06:10:00,34.2,12.4,30.24,NNW,329,4.0,4.0,40,0.00,,---,0.00,VWS V14.01,2013-03-14 10:10:00,
2013-03-14 06:14:00,34.2,12.4,30.24,NNW,343,3.6,3.6,40,0.00,,---,0.00,VWS V14.01,2013-03-14 10:14:00,
2013-03-14 06:15:00,34.2,12.4,30.24,NNW,343,3.6,3.6,40,0.00,,---,0.00,VWS V14.01,2013-03-14 10:15:00,
2013-03-14 06:19:00,34.2,12.4,30.24,WNW,301,4.0,4.0,40,0.00,,---,0.00,VWS V14.01,2013-03-14 10:19:00,
2013-03-14 06:20:00,34.2,12.4,30.24,West,279,5.4,5.4,40,0.00,,---,0.00,VWS V14.01,2013-03-14 10:20:00,
2013-03-14 06:24:00,34.2,12.4,30.24,WNW,285,5.8,6.7,40,0.00,,---,0.00,VWS V14.01,2013-03-14 10:24:00,
2013-03-14 06:25:00,34.2,12.4,30.24,WNW,285,5.8,5.8,40,0.00,,---,0.00,VWS V14.01,2013-03-14 10:25:00,
2013-03-14 06:29:00,34.2,12.4,30.24,NW,325,3.1,3.1,40,0.00,,---,0.00,VWS V14.01,2013-03-14 10:29:00,
2013-03-14 06:30:00,34.2,12.4,30.24,NW,325,3.1,3.1,40,0.00,,---,0.00,VWS V14.01,2013-03-14 10:30:00,
2013-03-14 06:34:00,34.2,12.4,30.24,NNW,335,7.6,7.6,40,0.00,,---,0.00,VWS V14.01,2013-03-14 10:34:00,
2013-03-14 06:35:00,34.2,12.4,30.24,NNW,335,7.6,7.6,40,0.00,,---,0.00,VWS V14.01,2013-03-14 10:35:00,
2013-03-14 06:39:00,34.2,12.4,30.24,WSW,254,4.9,4.9,40,0.00,,---,0.00,VWS V14.01,2013-03-14 10:39:00,
2013-03-14 06:40:00,34.2,12.4,30.24,WSW,254,4.9,4.9,40,0.00,,---,0.00,VWS V14.01,2013-03-14 10:40:00,
2013-03-14 06:44:00,34.2,12.4,30.24,NNW,335,4.0,4.0,40,0.00,,---,0.00,VWS V14.01,2013-03-14 10:44:00,
2013-03-14 06:45:00,34.2,12.4,30.24,NNW,335,4.0,4.0,40,0.00,,---,0.00,VWS V14.01,2013-03-14 10:45:00,
2013-03-14 06:49:00,34.0,12.2,30.24,WNW,291,7.2,7.2,40,0.00,,---,0.00,VWS V14.01,2013-03-14 10:49:00,
2013-03-14 06:50:00,34.0,12.2,30.24,NNW,332,5.4,7.2,40,0.00,,---,0.00,VWS V14.01,2013-03-14 10:50:00,
2013-03-14 06:54:00,34.0,12.2,30.27,NW,304,4.0,4.0,40,0.00,,---,0.00,VWS V14.01,2013-03-14 10:54:00,
2013-03-14 06:55:00,34.0,12.2,30.27,NW,314,3.6,7.6,40,0.00,,---,0.00,VWS V14.01,2013-03-14 10:55:00,
2013-03-14 06:59:00,34.0,12.2,30.27,NW,307,5.8,5.8,40,0.00,,---,0.00,VWS V14.01,2013-03-14 10:59:00,
2013-03-14 07:00:00,34.0,12.2,30.27,NW,307,4.5,4.5,40,0.00,,---,0.00,VWS V14.01,2013-03-14 11:00:00,
2013-03-14 07:01:00,34.0,12.2,30.27,NW,307,4.5,4.5,40,0.00,,---,0.00,VWS V14.01,2013-03-14 11:01:00,
2013-03-14 07:04:00,33.8,12.1,30.27,West,271,4.9,4.9,40,0.00,,---,0.00,VWS V14.01,2013-03-14 11:04:00,
2013-03-14 07:05:00,33.8,12.1,30.27,West,271,4.9,4.9,40,0.00,,---,0.00,VWS V14.01,2013-03-14 11:05:00,
2013-03-14 07:06:00,33.8,12.1,30.27,West,271,4.9,4.9,40,0.00,,---,0.00,VWS V14.01,2013-03-14 11:06:00,
2013-03-14 07:09:00,33.8,12.1,30.27,WSW,253,8.7,8.7,40,0.00,,---,0.00,VWS V14.01,2013-03-14 11:09:00,
2013-03-14 07:10:00,33.8,12.1,30.27,WSW,253,8.7,8.7,40,0.00,,---,0.00,VWS V14.01,2013-03-14 11:10:00,
2013-03-14 07:12:00,33.8,12.1,30.27,WSW,253,8.7,8.7,40,0.00,,---,0.00,VWS V14.01,2013-03-14 11:12:00,
2013-03-14 07:14:00,33.6,12.4,30.27,WSW,253,8.7,8.7,41,0.00,,---,0.00,VWS V14.01,2013-03-14 11:14:00,
2013-03-14 07:15:00,33.6,12.4,30.27,WSW,253,8.7,8.7,41,0.00,,---,0.00,VWS V14.01,2013-03-14 11:15:00,
2013-03-14 07:17:00,33.6,12.4,30.27,West,278,5.4,5.4,41,0.00,,---,0.00,VWS V14.01,2013-03-14 11:17:00,
2013-03-14 07:19:00,33.6,12.4,30.27,WNW,283,5.8,5.8,41,0.00,,---,0.00,VWS V14.01,2013-03-14 11:19:00,
2013-03-14 07:20:00,33.6,12.4,30.27,WNW,283,5.8,5.8,41,0.00,,---,0.00,VWS V14.01,2013-03-14 11:20:00,
2013-03-14 07:22:00,33.6,12.4,30.27,WSW,244,3.6,3.6,41,0.00,,---,0.00,VWS V14.01,2013-03-14 11:22:00,
2013-03-14 07:24:00,33.6,12.4,30.27,North,8,3.1,3.1,41,0.00,,---,0.00,VWS V14.01,2013-03-14 11:24:00,
2013-03-14 07:25:00,33.6,12.4,30.27,North,8,3.1,3.1,41,0.00,,---,0.00,VWS V14.01,2013-03-14 11:25:00,
2013-03-14 07:26:00,33.6,12.4,30.27,NNW,339,4.0,4.0,41,0.00,,---,0.00,VWS V14.01,2013-03-14 11:26:00,
2013-03-14 07:27:00,33.4,12.3,30.27,West,270,3.1,3.1,41,0.00,,---,0.00,VWS V14.01,2013-03-14 11:27:00,
2013-03-14 07:29:00,33.3,12.1,30.27,WNW,286,2.7,3.1,41,0.00,,---,0.00,VWS V14.01,2013-03-14 11:29:00,
2013-03-14 07:30:00,33.3,12.1,30.27,WNW,286,2.7,3.1,41,0.00,,---,0.00,VWS V14.01,2013-03-14 11:30:00,
2013-03-14 07:31:00,33.3,12.1,30.27,WNW,282,2.7,2.7,41,0.00,,---,0.00,VWS V14.01,2013-03-14 11:31:00,
2013-03-14 07:32:00,33.3,12.1,30.27,WNW,282,2.7,2.7,41,0.00,,---,0.00,VWS V14.01,2013-03-14 11:32:00,
2013-03-14 07:35:00,33.3,12.1,30.27,WNW,282,2.7,2.7,41,0.00,,---,0.00,VWS V14.01,2013-03-14 11:35:00,
2013-03-14 07:36:00,33.3,12.1,30.27,WNW,294,0.0,0.0,41,0.00,,---,0.00,VWS V14.01,2013-03-14 11:36:00,
2013-03-14 07:37:00,33.3,12.1,30.27,NW,324,3.6,3.6,41,0.00,,---,0.00,VWS V14.01,2013-03-14 11:37:00,
2013-03-14 07:40:00,33.3,12.1,30.27,NW,324,3.6,3.6,41,0.00,,---,0.00,VWS V14.01,2013-03-14 11:40:00,
2013-03-14 07:41:00,33.3,12.1,30.27,WNW,296,3.1,3.6,41,0.00,,---,0.00,VWS V14.01,2013-03-14 11:41:00,
2013-03-14 07:42:00,33.3,12.1,30.27,WNW,296,3.1,3.1,41,0.00,,---,0.00,VWS V14.01,2013-03-14 11:42:00,
2013-03-14 07:45:00,33.3,12.1,30.27,WNW,301,8.7,8.7,41,0.00,,---,0.00,VWS V14.01,2013-03-14 11:45:00,
2013-03-14 07:46:00,33.3,12.1,30.27,WNW,301,8.7,8.7,41,0.00,,---,0.00,VWS V14.01,2013-03-14 11:46:00,
2013-03-14 07:47:00,33.3,12.1,30.27,WNW,301,8.7,8.7,41,0.00,,---,0.00,VWS V14.01,2013-03-14 11:47:00,
2013-03-14 07:50:00,33.3,12.1,30.27,WNW,301,8.7,8.7,41,0.00,,---,0.00,VWS V14.01,2013-03-14 11:50:00,
2013-03-14 07:51:00,33.3,12.1,30.27,NW,312,5.8,5.8,41,0.00,,---,0.00,VWS V14.01,2013-03-14 11:51:00,
2013-03-14 07:52:00,33.3,12.1,30.27,NNW,344,3.6,3.6,41,0.00,,---,0.00,VWS V14.01,2013-03-14 11:52:00,
2013-03-14 07:55:00,33.3,12.1,30.27,NNW,344,3.6,3.6,41,0.00,,---,0.00,VWS V14.01,2013-03-14 11:55:00,
2013-03-14 07:57:00,33.4,12.3,30.27,NNW,344,3.6,3.6,41,0.00,,---,0.00,VWS V14.01,2013-03-14 11:57:00,
2013-03-14 08:00:00,33.4,12.3,30.27,NNW,342,3.6,3.6,41,0.00,,---,0.00,VWS V14.01,2013-03-14 12:00:00,
2013-03-14 08:02:00,33.4,12.3,30.27,NNW,343,5.4,8.1,41,0.00,,---,0.00,VWS V14.01,2013-03-14 12:02:00,
2013-03-14 08:05:00,34.0,12.2,30.27,North,0,3.1,3.1,40,0.00,,---,0.00,VWS V14.01,2013-03-14 12:05:00,
2013-03-14 08:07:00,34.2,12.4,30.27,West,260,3.1,3.1,40,0.00,,---,0.00,VWS V14.01,2013-03-14 12:07:00,
2013-03-14 08:10:00,34.2,12.4,30.27,West,263,7.6,7.6,40,0.00,,---,0.00,VWS V14.01,2013-03-14 12:10:00,
2013-03-14 08:12:00,34.2,12.4,30.27,WNW,298,2.7,2.7,40,0.00,,---,0.00,VWS V14.01,2013-03-14 12:12:00,
2013-03-14 08:15:00,34.2,12.4,30.27,West,280,6.7,6.7,40,0.00,,---,0.00,VWS V14.01,2013-03-14 12:15:00,
2013-03-14 08:17:00,34.7,12.9,30.27,WNW,282,8.3,8.3,40,0.00,,---,0.00,VWS V14.01,2013-03-14 12:17:00,
2013-03-14 08:18:00,34.7,12.9,30.27,West,280,4.0,8.3,40,0.00,,---,0.00,VWS V14.01,2013-03-14 12:18:00,
2013-03-14 08:20:00,34.7,12.9,30.27,WNW,291,5.4,5.4,40,0.00,,---,0.00,VWS V14.01,2013-03-14 12:20:00,
2013-03-14 08:22:00,35.1,13.2,30.30,NNW,331,8.7,8.7,40,0.00,,---,0.00,VWS V14.01,2013-03-14 12:22:00,
2013-03-14 08:23:00,35.1,13.2,30.30,NNW,331,8.7,8.7,40,0.00,,---,0.00,VWS V14.01,2013-03-14 12:23:00,
2013-03-14 08:25:00,35.2,13.4,30.30,WNW,282,3.1,3.6,40,0.00,,---,0.00,VWS V14.01,2013-03-14 12:25:00,
2013-03-14 08:27:00,35.2,13.4,30.30,West,278,3.6,3.6,40,0.00,,---,0.00,VWS V14.01,2013-03-14 12:27:00,
2013-03-14 08:28:00,35.2,13.4,30.30,West,278,3.6,3.6,40,0.00,,---,0.00,VWS V14.01,2013-03-14 12:28:00,
2013-03-14 08:30:00,35.6,13.7,30.30,WNW,296,2.7,2.7,40,0.00,,---,0.00,VWS V14.01,2013-03-14 12:30:00,
2013-03-14 08:32:00,35.6,13.7,30.30,NNW,327,4.9,4.9,40,0.00,,---,0.00,VWS V14.01,2013-03-14 12:32:00,
2013-03-14 08:33:00,35.6,13.7,30.30,North,0,3.6,3.6,40,0.00,,---,0.00,VWS V14.01,2013-03-14 12:33:00,
2013-03-14 08:35:00,35.6,13.7,30.30,NW,314,7.2,7.2,40,0.00,,---,0.00,VWS V14.01,2013-03-14 12:35:00,
2013-03-14 08:36:00,35.6,13.7,30.30,NW,314,7.2,7.2,40,0.00,,---,0.00,VWS V14.01,2013-03-14 12:36:00,
2013-03-14 08:37:00,35.6,13.7,30.30,West,278,5.4,5.4,40,0.00,,---,0.00,VWS V14.01,2013-03-14 12:37:00,
2013-03-14 08:38:00,35.6,13.7,30.30,WNW,297,3.1,3.1,40,0.00,,---,0.00,VWS V14.01,2013-03-14 12:38:00,
2013-03-14 08:40:00,35.6,13.7,30.30,North,349,4.0,4.0,40,0.00,,---,0.00,VWS V14.01,2013-03-14 12:40:00,
2013-03-14 08:41:00,35.6,13.7,30.30,North,349,4.0,4.0,40,0.00,,---,0.00,VWS V14.01,2013-03-14 12:41:00,
2013-03-14 08:42:00,35.6,13.7,30.30,NW,317,5.4,5.4,40,0.00,,---,0.00,VWS V14.01,2013-03-14 12:42:00,
2013-03-14 08:43:00,36.5,14.5,30.30,North,2,5.8,5.8,40,0.00,,---,0.00,VWS V14.01,2013-03-14 12:43:00,
2013-03-14 08:45:00,36.5,14.5,30.30,North,2,5.8,5.8,40,0.00,,---,0.00,VWS V14.01,2013-03-14 12:45:00,
2013-03-14 08:46:00,36.5,14.5,30.30,North,2,5.8,5.8,40,0.00,,---,0.00,VWS V14.01,2013-03-14 12:46:00,
2013-03-14 08:47:00,36.7,14.6,30.30,West,272,9.6,9.6,40,0.00,,---,0.00,VWS V14.01,2013-03-14 12:47:00,
2013-03-14 08:48:00,36.7,14.6,30.30,West,272,9.6,9.6,40,0.00,,---,0.00,VWS V14.01,2013-03-14 12:48:00,
2013-03-14 08:50:00,36.7,14.6,30.30,WNW,294,3.1,9.6,40,0.00,,---,0.00,VWS V14.01,2013-03-14 12:50:00,
2013-03-14 08:51:00,36.7,14.6,30.30,WNW,294,3.1,9.6,40,0.00,,---,0.00,VWS V14.01,2013-03-14 12:51:00,
2013-03-14 08:52:00,36.9,14.8,30.30,NNW,330,3.1,3.1,40,0.00,,---,0.00,VWS V14.01,2013-03-14 12:52:00,
2013-03-14 08:53:00,36.9,14.8,30.30,NNW,330,3.1,3.1,40,0.00,,---,0.00,VWS V14.01,2013-03-14 12:53:00,
2013-03-14 08:55:00,36.9,14.8,30.30,WNW,299,4.0,4.0,40,0.00,,---,0.00,VWS V14.01,2013-03-14 12:55:00,
2013-03-14 08:56:00,37.0,15.0,30.30,NW,309,5.4,5.4,40,0.00,,---,0.00,VWS V14.01,2013-03-14 12:56:00,
2013-03-14 08:57:00,37.0,15.0,30.30,NW,309,5.4,5.4,40,0.00,,---,0.00,VWS V14.01,2013-03-14 12:57:00,
2013-03-14 08:59:00,37.0,15.0,30.30,North,10,8.3,8.3,40,0.00,,---,0.00,VWS V14.01,2013-03-14 12:59:00,
2013-03-14 09:00:00,37.0,15.0,30.30,North,10,8.3,8.3,40,0.00,,---,0.00,VWS V14.01,2013-03-14 13:00:00,
2013-03-14 09:01:00,37.0,15.0,30.30,West,259,3.6,8.3,40,0.00,,---,0.00,VWS V14.01,2013-03-14 13:01:00,
2013-03-14 09:03:00,37.0,15.0,30.30,NNW,331,4.0,4.0,40,0.00,,---,0.00,VWS V14.01,2013-03-14 13:03:00,
2013-03-14 09:04:00,37.0,15.0,30.30,NW,322,11.9,11.9,40,0.00,,---,0.00,VWS V14.01,2013-03-14 13:04:00,
2013-03-14 09:05:00,37.0,15.0,30.30,WNW,302,5.4,5.4,40,0.00,,---,0.00,VWS V14.01,2013-03-14 13:05:00,
2013-03-14 09:06:00,37.0,15.0,30.30,WNW,302,5.4,5.4,40,0.00,,---,0.00,VWS V14.01,2013-03-14 13:06:00,
2013-03-14 09:08:00,37.8,15.0,30.30,NNW,330,3.1,5.4,39,0.00,,---,0.00,VWS V14.01,2013-03-14 13:08:00,
2013-03-14 09:09:00,37.8,15.0,30.30,NW,307,3.1,3.1,39,0.00,,---,0.00,VWS V14.01,2013-03-14 13:09:00,
2013-03-14 09:10:00,37.8,15.0,30.30,WNW,295,3.6,3.6,39,0.00,,---,0.00,VWS V14.01,2013-03-14 13:10:00,
2013-03-14 09:11:00,37.8,15.0,30.30,North,0,6.7,6.7,39,0.00,,---,0.00,VWS V14.01,2013-03-14 13:11:00,
2013-03-14 09:13:00,37.9,15.2,30.30,North,0,6.7,6.7,39,0.00,,---,0.00,VWS V14.01,2013-03-14 13:13:00,
2013-03-14 09:14:00,38.3,15.5,30.30,West,275,4.0,6.7,39,0.00,,---,0.00,VWS V14.01,2013-03-14 13:14:00,
2013-03-14 09:15:00,38.5,15.7,30.30,NNW,343,4.0,4.0,39,0.00,,---,0.00,VWS V14.01,2013-03-14 13:15:00,
2013-03-14 09:16:00,38.5,15.7,30.30,NNW,343,4.0,4.0,39,0.00,,---,0.00,VWS V14.01,2013-03-14 13:16:00,
2013-03-14 09:18:00,38.5,15.7,30.30,West,277,6.3,6.3,39,0.00,,---,0.00,VWS V14.01,2013-03-14 13:18:00,
2013-03-14 09:19:00,38.5,15.7,30.30,West,277,6.3,6.3,39,0.00,,---,0.00,VWS V14.01,2013-03-14 13:19:00,
2013-03-14 09:20:00,38.7,15.9,30.30,WNW,289,8.3,8.3,39,0.00,,---,0.00,VWS V14.01,2013-03-14 13:20:00,
2013-03-14 09:21:00,38.7,15.9,30.30,WNW,289,8.3,8.3,39,0.00,,---,0.00,VWS V14.01,2013-03-14 13:21:00,
2013-03-14 09:23:00,38.7,15.9,30.30,West,259,3.6,3.6,39,0.00,,---,0.00,VWS V14.01,2013-03-14 13:23:00,
2013-03-14 09:24:00,38.7,15.9,30.30,WSW,238,6.3,6.3,39,0.00,,---,0.00,VWS V14.01,2013-03-14 13:24:00,
2013-03-14 09:25:00,38.7,15.9,30.30,WNW,289,3.6,3.6,39,0.00,,---,0.00,VWS V14.01,2013-03-14 13:25:00,
2013-03-14 09:26:00,38.7,15.9,30.30,WNW,289,3.6,3.6,39,0.00,,---,0.00,VWS V14.01,2013-03-14 13:26:00,
2013-03-14 09:28:00,38.7,15.9,30.30,West,268,8.1,8.1,39,0.00,,---,0.00,VWS V14.01,2013-03-14 13:28:00,
2013-03-14 09:29:00,39.0,16.2,30.30,NW,324,6.3,10.1,39,0.00,,---,0.00,VWS V14.01,2013-03-14 13:29:00,
2013-03-14 09:30:00,39.2,16.3,30.30,West,275,5.4,6.3,39,0.00,,---,0.00,VWS V14.01,2013-03-14 13:30:00,
2013-03-14 09:31:00,39.2,16.3,30.30,West,275,5.4,5.4,39,0.00,,---,0.00,VWS V14.01,2013-03-14 13:31:00,
2013-03-14 09:33:00,39.2,16.3,30.30,NW,324,2.7,2.7,39,0.00,,---,0.00,VWS V14.01,2013-03-14 13:33:00,
2013-03-14 09:34:00,39.2,16.3,30.30,NW,324,2.7,2.7,39,0.00,,---,0.00,VWS V14.01,2013-03-14 13:34:00,
2013-03-14 09:35:00,39.2,16.3,30.30,NNW,335,7.6,7.6,39,0.00,,---,0.00,VWS V14.01,2013-03-14 13:35:00,
2013-03-14 09:36:00,39.2,16.3,30.30,WNW,290,4.0,4.0,39,0.00,,---,0.00,VWS V14.01,2013-03-14 13:36:00,
2013-03-14 09:38:00,39.7,16.8,30.33,SW,215,2.7,5.8,39,0.00,,---,0.00,VWS V14.01,2013-03-14 13:38:00,
2013-03-14 09:39:00,39.7,16.8,30.33,SW,215,2.7,2.7,39,0.00,,---,0.00,VWS V14.01,2013-03-14 13:39:00,
2013-03-14 09:40:00,39.7,16.8,30.33,WNW,297,5.8,5.8,39,0.00,,---,0.00,VWS V14.01,2013-03-14 13:40:00,
2013-03-14 09:42:00,39.7,16.8,30.33,WNW,288,5.4,5.8,39,0.00,,---,0.00,VWS V14.01,2013-03-14 13:42:00,
2013-03-14 09:43:00,39.7,16.8,30.33,WNW,301,13.2,13.2,39,0.00,,---,0.00,VWS V14.01,2013-03-14 13:43:00,
2013-03-14 09:44:00,39.7,16.8,30.33,West,272,8.3,8.3,39,0.00,,---,0.00,VWS V14.01,2013-03-14 13:44:00,
2013-03-14 09:45:00,39.9,17.0,30.33,West,272,8.3,8.3,39,0.00,,---,0.00,VWS V14.01,2013-03-14 13:45:00,
2013-03-14 09:47:00,39.9,17.0,30.33,West,272,8.3,8.3,39,0.00,,---,0.00,VWS V14.01,2013-03-14 13:47:00,
2013-03-14 09:48:00,39.9,17.0,30.33,NE,41,8.7,8.7,39,0.00,,---,0.00,VWS V14.01,2013-03-14 13:48:00,
2013-03-14 09:49:00,39.9,17.0,30.30,NE,41,8.7,8.7,39,0.00,,---,0.00,VWS V14.01,2013-03-14 13:49:00,
2013-03-14 09:51:00,39.9,17.0,30.30,North,0,8.3,8.7,39,0.00,,---,0.00,VWS V14.01,2013-03-14 13:51:00,
2013-03-14 09:52:00,39.9,17.0,30.30,North,0,8.3,8.3,39,0.00,,---,0.00,VWS V14.01,2013-03-14 13:52:00,
2013-03-14 09:53:00,39.9,17.0,30.30,West,281,5.4,5.4,39,0.00,,---,0.00,VWS V14.01,2013-03-14 13:53:00,
2013-03-14 09:54:00,40.3,17.3,30.30,West,281,5.4,5.4,39,0.00,,---,0.00,VWS V14.01,2013-03-14 13:54:00,
2013-03-14 09:56:00,40.6,17.6,30.30,West,281,5.4,5.4,39,0.00,,---,0.00,VWS V14.01,2013-03-14 13:56:00,
2013-03-14 09:57:00,40.6,17.6,30.30,NW,312,8.1,8.1,39,0.00,,---,0.00,VWS V14.01,2013-03-14 13:57:00,
2013-03-14 09:58:00,40.6,17.6,30.30,NW,312,8.1,8.1,39,0.00,,---,0.00,VWS V14.01,2013-03-14 13:58:00,
2013-03-14 09:59:00,40.8,17.8,30.30,NW,312,8.1,8.1,39,0.00,,---,0.00,VWS V14.01,2013-03-14 13:59:00,
2013-03-14 10:01:00,40.8,17.8,30.30,NW,313,8.7,8.7,39,0.00,,---,0.00,VWS V14.01,2013-03-14 14:01:00,
2013-03-14 10:02:00,40.6,17.6,30.30,NW,313,8.7,8.7,39,0.00,,---,0.00,VWS V14.01,2013-03-14 14:02:00,
2013-03-14 10:03:00,40.6,17.6,30.30,NW,313,8.7,8.7,39,0.00,,---,0.00,VWS V14.01,2013-03-14 14:03:00,
2013-03-14 10:04:00,40.6,17.6,30.30,NNW,330,6.3,6.3,39,0.00,,---,0.00,VWS V14.01,2013-03-14 14:04:00,
2013-03-14 10:06:00,41.0,18.0,30.30,NW,318,6.3,6.3,39,0.00,,---,0.00,VWS V14.01,2013-03-14 14:06:00,
2013-03-14 10:07:00,41.0,18.0,30.30,NW,318,6.3,6.3,39,0.00,,---,0.00,VWS V14.01,2013-03-14 14:07:00,
2013-03-14 10:08:00,41.0,18.0,30.30,NW,318,6.3,6.3,39,0.00,,---,0.00,VWS V14.01,2013-03-14 14:08:00,
2013-03-14 10:09:00,41.0,18.0,30.30,WNW,302,12.8,12.8,39,0.00,,---,0.00,VWS V14.01,2013-03-14 14:09:00,
2013-03-14 10:12:00,41.0,18.0,30.30,WSW,247,8.1,8.1,39,0.00,,---,0.00,VWS V14.01,2013-03-14 14:12:00,
2013-03-14 10:13:00,41.0,18.0,30.30,NNW,348,3.6,8.1,39,0.00,,---,0.00,VWS V14.01,2013-03-14 14:13:00,
2013-03-14 10:14:00,40.8,17.8,30.30,NNW,348,3.6,3.6,39,0.00,,---,0.00,VWS V14.01,2013-03-14 14:14:00,
2013-03-14 10:17:00,41.0,18.0,30.30,NNW,343,5.4,5.4,39,0.00,,---,0.00,VWS V14.01,2013-03-14 14:17:00,
2013-03-14 10:18:00,41.0,18.0,30.30,NNW,330,7.6,8.7,39,0.00,,---,0.00,VWS V14.01,2013-03-14 14:18:00,
2013-03-14 10:19:00,41.0,18.0,30.30,NNW,330,7.6,7.6,39,0.00,,---,0.00,VWS V14.01,2013-03-14 14:19:00,
2013-03-14 10:22:00,41.2,18.1,30.30,NNW,330,7.6,7.6,39,0.00,,---,0.00,VWS V14.01,2013-03-14 14:22:00,
2013-03-14 10:23:00,41.2,18.1,30.30,NNW,333,10.5,10.5,39,0.00,,---,0.00,VWS V14.01,2013-03-14 14:23:00,
2013-03-14 10:24:00,41.2,18.1,30.30,NNW,333,10.5,10.5,39,0.00,,---,0.00,VWS V14.01,2013-03-14 14:24:00,
2013-03-14 10:27:00,41.2,18.1,30.30,NNW,340,6.3,12.8,39,0.00,,---,0.00,VWS V14.01,2013-03-14 14:27:00,
2013-03-14 10:28:00,41.2,18.1,30.30,West,281,5.4,6.3,39,0.00,,---,0.00,VWS V14.01,2013-03-14 14:28:00,
2013-03-14 10:29:00,41.5,18.4,30.30,West,281,5.4,5.4,39,0.00,,---,0.00,VWS V14.01,2013-03-14 14:29:00,
2013-03-14 10:32:00,41.7,18.6,30.30,NW,323,10.5,10.5,39,0.00,,---,0.00,VWS V14.01,2013-03-14 14:32:00,
2013-03-14 10:33:00,41.7,18.6,30.30,North,357,10.1,10.5,39,0.00,,---,0.00,VWS V14.01,2013-03-14 14:33:00,
2013-03-14 10:34:00,41.7,18.6,30.30,North,357,10.1,10.1,39,0.00,,---,0.00,VWS V14.01,2013-03-14 14:34:00,
2013-03-14 10:37:00,41.9,18.8,30.30,North,0,8.7,8.7,39,0.00,,---,0.00,VWS V14.01,2013-03-14 14:37:00,
2013-03-14 10:38:00,42.3,19.1,30.30,North,0,8.7,8.7,39,0.00,,---,0.00,VWS V14.01,2013-03-14 14:38:00,
2013-03-14 10:39:00,42.6,19.4,30.30,WNW,303,6.7,6.7,39,0.00,,---,0.00,VWS V14.01,2013-03-14 14:39:00,
2013-03-14 10:42:00,42.8,19.0,30.30,NW,317,7.6,7.6,38,0.00,,---,0.00,VWS V14.01,2013-03-14 14:42:00,
2013-03-14 10:43:00,42.8,19.0,30.30,NNE,29,6.3,6.3,38,0.00,,---,0.00,VWS V14.01,2013-03-14 14:43:00,
2013-03-14 10:44:00,42.8,19.0,30.30,NW,319,3.6,7.2,38,0.00,,---,0.00,VWS V14.01,2013-03-14 14:44:00,
2013-03-14 10:47:00,42.8,19.0,30.30,NW,320,3.1,3.1,38,0.00,,---,0.00,VWS V14.01,2013-03-14 14:47:00,
2013-03-14 10:48:00,42.8,19.0,30.30,NW,320,3.1,3.1,38,0.00,,---,0.00,VWS V14.01,2013-03-14 14:48:00,
2013-03-14 10:49:00,42.6,19.4,30.30,NW,320,3.1,3.1,39,0.00,,---,0.00,VWS V14.01,2013-03-14 14:49:00,
2013-03-14 10:52:00,42.6,19.4,30.30,WNW,288,8.1,8.1,39,0.00,,---,0.00,VWS V14.01,2013-03-14 14:52:00,
2013-03-14 10:53:00,42.6,19.4,30.30,West,271,6.3,6.3,39,0.00,,---,0.00,VWS V14.01,2013-03-14 14:53:00,
2013-03-14 10:54:00,42.4,19.2,30.30,NW,311,7.2,8.1,39,0.00,,---,0.00,VWS V14.01,2013-03-14 14:54:00,
2013-03-14 10:57:00,42.4,19.2,30.30,NW,311,7.2,7.2,39,0.00,,---,0.00,VWS V14.01,2013-03-14 14:57:00,
2013-03-14 10:58:00,42.4,19.2,30.30,NW,311,7.2,7.2,39,0.00,,---,0.00,VWS V14.01,2013-03-14 14:58:00,
2013-03-14 10:59:00,42.4,19.2,30.30,NNW,345,8.3,8.3,39,0.00,,---,0.00,VWS V14.01,2013-03-14 14:59:00,
2013-03-14 11:02:00,42.4,19.2,30.30,WSW,252,5.4,5.4,39,0.00,,---,0.00,VWS V14.01,2013-03-14 15:02:00,
2013-03-14 11:03:00,43.2,19.3,30.30,NNW,340,11.4,11.4,38,0.00,,---,0.00,VWS V14.01,2013-03-14 15:03:00,
2013-03-14 11:04:00,43.2,19.3,30.30,NNW,340,11.4,11.4,38,0.00,,---,0.00,VWS V14.01,2013-03-14 15:04:00,
2013-03-14 11:07:00,43.2,19.3,30.30,West,263,6.3,6.3,38,0.00,,---,0.00,VWS V14.01,2013-03-14 15:07:00,
2013-03-14 11:08:00,43.3,19.5,30.30,North,0,5.8,6.3,38,0.00,,---,0.00,VWS V14.01,2013-03-14 15:08:00,
2013-03-14 11:09:00,43.3,19.5,30.30,North,0,5.8,6.3,38,0.00,,---,0.00,VWS V14.01,2013-03-14 15:09:00,
2013-03-14 11:10:00,43.3,19.5,30.30,North,353,5.4,5.8,38,0.00,,---,0.00,VWS V14.01,2013-03-14 15:10:00,
2013-03-14 11:12:00,43.2,19.3,30.30,West,277,4.9,7.6,38,0.00,,---,0.00,VWS V14.01,2013-03-14 15:12:00,
2013-03-14 11:13:00,43.2,19.3,30.30,West,277,4.9,4.9,38,0.00,,---,0.00,VWS V14.01,2013-03-14 15:13:00,
2013-03-14 11:14:00,43.2,19.3,30.30,NNW,343,5.4,5.4,38,0.00,,---,0.00,VWS V14.01,2013-03-14 15:14:00,
2013-03-14 11:15:00,43.2,19.3,30.30,NNW,343,5.4,5.4,38,0.00,,---,0.00,VWS V14.01,2013-03-14 15:15:00,
2013-03-14 11:17:00,43.2,19.3,30.30,WSW,247,4.0,4.0,38,0.00,,---,0.00,VWS V14.01,2013-03-14 15:17:00,
2013-03-14 11:18:00,43.2,19.3,30.30,NNW,332,6.3,6.3,38,0.00,,---,0.00,VWS V14.01,2013-03-14 15:18:00,
2013-03-14 11:19:00,43.2,19.3,30.30,NNW,341,0.0,6.3,38,0.00,,---,0.00,VWS V14.01,2013-03-14 15:19:00,
2013-03-14 11:20:00,43.3,19.5,30.30,NNW,341,0.0,0.0,38,0.00,,---,0.00,VWS V14.01,2013-03-14 15:20:00,
2013-03-14 11:22:00,43.5,19.6,30.30,NNW,341,10.1,10.1,38,0.00,,---,0.00,VWS V14.01,2013-03-14 15:22:00,
2013-03-14 11:23:00,43.5,19.6,30.30,NNW,341,10.1,10.1,38,0.00,,---,0.00,VWS V14.01,2013-03-14 15:23:00,
2013-03-14 11:24:00,43.5,19.6,30.30,NNW,341,10.1,10.1,38,0.00,,---,0.00,VWS V14.01,2013-03-14 15:24:00,
2013-03-14 11:25:00,43.5,19.6,30.30,NNW,341,10.1,10.1,38,0.00,,---,0.00,VWS V14.01,2013-03-14 15:25:00,
2013-03-14 11:27:00,43.5,19.6,30.30,NNW,330,5.8,10.1,38,0.00,,---,0.00,VWS V14.01,2013-03-14 15:27:00,
2013-03-14 11:29:00,43.5,19.6,30.30,NNW,330,5.8,5.8,38,0.00,,---,0.00,VWS V14.01,2013-03-14 15:29:00,
2013-03-14 11:30:00,44.4,20.4,30.30,NW,316,9.6,9.6,38,0.00,,---,0.00,VWS V14.01,2013-03-14 15:30:00,
2013-03-14 11:32:00,44.6,20.6,30.30,NW,324,9.6,9.6,38,0.00,,---,0.00,VWS V14.01,2013-03-14 15:32:00,
2013-03-14 11:34:00,44.6,20.6,30.30,NW,324,9.6,9.6,38,0.00,,---,0.00,VWS V14.01,2013-03-14 15:34:00,
2013-03-14 11:35:00,44.6,20.6,30.30,North,0,8.1,9.6,38,0.00,,---,0.00,VWS V14.01,2013-03-14 15:35:00,
2013-03-14 11:38:00,44.1,20.1,30.30,WSW,258,7.2,7.2,38,0.00,,---,0.00,VWS V14.01,2013-03-14 15:38:00,
2013-03-14 11:39:00,44.1,20.1,30.30,NNW,336,8.7,8.7,38,0.00,,---,0.00,VWS V14.01,2013-03-14 15:39:00,
2013-03-14 11:40:00,44.1,20.1,30.30,NW,326,8.1,8.1,38,0.00,,---,0.00,VWS V14.01,2013-03-14 15:40:00,
2013-03-14 11:43:00,44.1,20.1,30.30,NW,326,3.1,8.1,38,0.00,,---,0.00,VWS V14.01,2013-03-14 15:43:00,
2013-03-14 11:44:00,44.4,20.4,30.30,NW,326,3.1,3.1,38,0.00,,---,0.00,VWS V14.01,2013-03-14 15:44:00,
2013-03-14 11:45:00,44.4,20.4,30.30,North,353,5.8,5.8,38,0.00,,---,0.00,VWS V14.01,2013-03-14 15:45:00,
2013-03-14 11:48:00,45.0,20.9,30.30,NNE,20,5.4,5.4,38,0.00,,---,0.00,VWS V14.01,2013-03-14 15:48:00,
2013-03-14 11:49:00,45.1,21.1,30.30,NW,317,2.7,2.7,38,0.00,,---,0.00,VWS V14.01,2013-03-14 15:49:00,
2013-03-14 11:50:00,45.1,21.1,30.30,North,353,5.8,5.8,38,0.00,,---,0.00,VWS V14.01,2013-03-14 15:50:00,
2013-03-14 11:53:00,45.1,21.1,30.30,West,277,11.0,11.0,38,0.00,,---,0.00,VWS V14.01,2013-03-14 15:53:00,
2013-03-14 11:54:00,45.1,21.1,30.30,West,277,11.0,11.0,38,0.00,,---,0.00,VWS V14.01,2013-03-14 15:54:00,
2013-03-14 11:55:00,45.1,21.1,30.30,West,262,5.4,11.0,38,0.00,,---,0.00,VWS V14.01,2013-03-14 15:55:00,
2013-03-14 11:58:00,45.3,21.2,30.30,North,353,6.3,6.3,38,0.00,,---,0.00,VWS V14.01,2013-03-14 15:58:00,
2013-03-14 11:59:00,45.9,21.7,30.30,North,353,6.3,6.3,38,0.00,,---,0.00,VWS V14.01,2013-03-14 15:59:00,
2013-03-14 12:00:00,46.0,21.9,30.30,North,353,6.3,6.3,38,0.00,,---,0.00,VWS V14.01,2013-03-14 16:00:00,
2013-03-14 12:03:00,46.0,21.9,30.30,NW,322,5.8,5.8,38,0.00,,---,0.00,VWS V14.01,2013-03-14 16:03:00,
2013-03-14 12:04:00,46.2,22.0,30.30,West,265,8.1,8.1,38,0.00,,---,0.00,VWS V14.01,2013-03-14 16:04:00,
2013-03-14 12:05:00,46.2,22.0,30.30,West,265,8.1,8.1,38,0.00,,---,0.00,VWS V14.01,2013-03-14 16:05:00,
2013-03-14 12:08:00,46.2,22.0,30.30,NE,43,4.0,4.0,38,0.00,,---,0.00,VWS V14.01,2013-03-14 16:08:00,
2013-03-14 12:09:00,46.2,22.0,30.30,NE,43,4.0,4.0,38,0.00,,---,0.00,VWS V14.01,2013-03-14 16:09:00,
2013-03-14 12:10:00,46.2,22.0,30.30,NW,319,3.6,4.0,38,0.00,,---,0.00,VWS V14.01,2013-03-14 16:10:00,
2013-03-14 12:13:00,46.4,21.6,30.30,WNW,293,3.1,3.1,37,0.00,,---,0.00,VWS V14.01,2013-03-14 16:13:00,
2013-03-14 12:14:00,46.4,21.6,30.30,WNW,293,4.0,4.0,37,0.00,,---,0.00,VWS V14.01,2013-03-14 16:14:00,
2013-03-14 12:15:00,46.4,21.6,30.30,WNW,293,4.0,4.0,37,0.00,,---,0.00,VWS V14.01,2013-03-14 16:15:00,
2013-03-14 12:18:00,46.6,21.7,30.30,NNW,333,6.3,6.3,37,0.00,,---,0.00,VWS V14.01,2013-03-14 16:18:00,
2013-03-14 12:19:00,46.6,21.7,30.30,NNW,333,6.3,6.3,37,0.00,,---,0.00,VWS V14.01,2013-03-14 16:19:00,
2013-03-14 12:20:00,46.9,22.0,30.30,NNW,333,6.3,6.3,37,0.00,,---,0.00,VWS V14.01,2013-03-14 16:20:00,
2013-03-14 12:24:00,46.9,22.0,30.30,West,280,10.5,10.5,37,0.00,,---,0.00,VWS V14.01,2013-03-14 16:24:00,
2013-03-14 12:25:00,46.8,21.9,30.30,NW,321,4.0,4.0,37,0.00,,---,0.00,VWS V14.01,2013-03-14 16:25:00,
2013-03-14 12:29:00,46.6,21.7,30.30,WNW,303,4.9,4.9,37,0.00,,---,0.00,VWS V14.01,2013-03-14 16:29:00,
2013-03-14 12:30:00,46.8,21.9,30.30,WNW,303,4.9,4.9,37,0.00,,---,0.00,VWS V14.01,2013-03-14 16:30:00,
2013-03-14 12:34:00,46.8,21.9,30.30,NNW,334,6.3,6.3,37,0.00,,---,0.00,VWS V14.01,2013-03-14 16:34:00,
2013-03-14 12:35:00,46.8,21.9,30.30,West,274,4.0,4.0,37,0.00,,---,0.00,VWS V14.01,2013-03-14 16:35:00,
2013-03-14 12:39:00,47.1,22.2,30.30,NW,325,6.3,6.3,37,0.00,,---,0.00,VWS V14.01,2013-03-14 16:39:00,
2013-03-14 12:40:00,47.1,22.2,30.30,West,266,6.3,6.3,37,0.00,,---,0.00,VWS V14.01,2013-03-14 16:40:00,
2013-03-14 12:44:00,46.9,22.0,30.30,WNW,301,5.4,5.4,37,0.00,,---,0.00,VWS V14.01,2013-03-14 16:44:00,
2013-03-14 12:45:00,46.8,21.9,30.30,WSW,256,2.2,2.2,37,0.00,,---,0.00,VWS V14.01,2013-03-14 16:45:00,
2013-03-14 12:49:00,47.3,22.4,30.30,WNW,288,3.1,3.1,37,0.00,,---,0.00,VWS V14.01,2013-03-14 16:49:00,
2013-03-14 12:50:00,47.3,22.4,30.30,WNW,282,9.6,9.6,37,0.00,,---,0.00,VWS V14.01,2013-03-14 16:50:00,
2013-03-14 12:54:00,47.5,22.5,30.30,North,0,6.3,6.3,37,0.00,,---,0.00,VWS V14.01,2013-03-14 16:54:00,
2013-03-14 12:55:00,47.5,22.5,30.30,WNW,296,4.9,5.4,37,0.00,,---,0.00,VWS V14.01,2013-03-14 16:55:00,
2013-03-14 12:59:00,47.7,22.7,30.30,WNW,296,5.8,5.8,37,0.00,,---,0.00,VWS V14.01,2013-03-14 16:59:00,
2013-03-14 13:00:00,47.7,22.7,30.30,WSW,251,5.4,5.8,37,0.00,,---,0.00,VWS V14.01,2013-03-14 17:00:00,
2013-03-14 13:04:00,47.7,22.7,30.30,NW,313,8.7,8.7,37,0.00,,---,0.00,VWS V14.01,2013-03-14 17:04:00,
2013-03-14 13:05:00,47.3,22.4,30.30,NW,313,8.7,8.7,37,0.00,,---,0.00,VWS V14.01,2013-03-14 17:05:00,
2013-03-14 13:09:00,48.2,23.2,30.30,NE,36,3.6,6.3,37,0.00,,---,0.00,VWS V14.01,2013-03-14 17:09:00,
2013-03-14 13:10:00,48.2,23.2,30.30,NE,36,3.6,3.6,37,0.00,,---,0.00,VWS V14.01,2013-03-14 17:10:00,
2013-03-14 13:14:00,48.2,23.2,30.30,NW,307,4.0,4.0,37,0.00,,---,0.00,VWS V14.01,2013-03-14 17:14:00,
2013-03-14 13:15:00,48.2,23.2,30.30,NW,307,4.0,4.0,37,0.00,,---,0.00,VWS V14.01,2013-03-14 17:15:00,
2013-03-14 13:19:00,48.2,23.2,30.30,NNW,339,2.7,2.7,37,0.00,,---,0.00,VWS V14.01,2013-03-14 17:19:00,
2013-03-14 13:20:00,48.7,23.6,30.30,NW,324,7.2,7.2,37,0.00,,---,0.00,VWS V14.01,2013-03-14 17:20:00,
2013-03-14 13:24:00,48.6,23.5,30.30,North,8,5.8,5.8,37,0.00,,---,0.00,VWS V14.01,2013-03-14 17:24:00,
2013-03-14 13:25:00,48.6,23.5,30.30,NW,306,7.6,7.6,37,0.00,,---,0.00,VWS V14.01,2013-03-14 17:25:00,
2013-03-14 13:29:00,48.6,23.5,30.30,West,278,11.4,11.4,37,0.00,,---,0.00,VWS V14.01,2013-03-14 17:29:00,
2013-03-14 13:30:00,48.7,23.6,30.30,West,270,5.8,8.3,37,0.00,,---,0.00,VWS V14.01,2013-03-14 17:30:00,
2013-03-14 13:34:00,48.6,23.5,30.30,NNW,334,10.5,10.5,37,0.00,,---,0.00,VWS V14.01,2013-03-14 17:34:00,
2013-03-14 13:35:00,48.6,23.5,30.30,West,272,0.0,4.9,37,0.00,,---,0.00,VWS V14.01,2013-03-14 17:35:00,
2013-03-14 13:36:00,48.6,23.5,30.30,West,272,0.0,4.9,37,0.00,,---,0.00,VWS V14.01,2013-03-14 17:36:00,
2013-03-14 13:39:00,48.6,23.5,30.30,WSW,251,3.6,3.6,37,0.00,,---,0.00,VWS V14.01,2013-03-14 17:39:00,
2013-03-14 13:40:00,48.6,23.5,30.30,WSW,257,7.2,7.2,37,0.00,,---,0.00,VWS V14.01,2013-03-14 17:40:00,
2013-03-14 13:41:00,48.6,23.5,30.30,WSW,257,7.2,7.2,37,0.00,,---,0.00,VWS V14.01,2013-03-14 17:41:00,
2013-03-14 13:44:00,50.0,24.8,30.30,South,191,2.7,2.7,37,0.00,,---,0.00,VWS V14.01,2013-03-14 17:44:00,
2013-03-14 13:45:00,50.0,24.8,30.30,WSW,245,9.6,9.6,37,0.00,,---,0.00,VWS V14.01,2013-03-14 17:45:00,
2013-03-14 13:46:00,50.0,24.8,30.30,WSW,245,9.6,9.6,37,0.00,,---,0.00,VWS V14.01,2013-03-14 17:46:00,
2013-03-14 13:49:00,50.2,24.9,30.30,WSW,243,10.1,10.1,37,0.00,,---,0.00,VWS V14.01,2013-03-14 17:49:00,
2013-03-14 13:51:00,50.2,24.9,30.30,SSW,200,10.1,10.1,37,0.00,,---,0.00,VWS V14.01,2013-03-14 17:51:00,
2013-03-14 13:54:00,50.2,24.9,30.30,NW,305,4.0,5.8,37,0.00,,---,0.00,VWS V14.01,2013-03-14 17:54:00,
2013-03-14 13:56:00,50.2,24.9,30.27,NW,305,4.0,4.0,37,0.00,,---,0.00,VWS V14.01,2013-03-14 17:56:00,
2013-03-14 13:59:00,49.6,24.5,30.27,NW,322,3.1,8.3,37,0.00,,---,0.00,VWS V14.01,2013-03-14 17:59:00,
2013-03-14 14:01:00,49.6,24.5,30.27,WSW,245,7.6,7.6,37,0.00,,---,0.00,VWS V14.01,2013-03-14 18:01:00,
2013-03-14 14:04:00,49.6,24.5,30.27,West,269,4.9,4.9,37,0.00,,---,0.00,VWS V14.01,2013-03-14 18:04:00,
2013-03-14 14:06:00,49.6,24.5,30.27,West,277,8.3,8.3,37,0.00,,---,0.00,VWS V14.01,2013-03-14 18:06:00,
2013-03-14 14:09:00,49.6,24.5,30.27,NW,323,7.6,11.0,37,0.00,,---,0.00,VWS V14.01,2013-03-14 18:09:00,
2013-03-14 14:10:00,49.6,24.5,30.27,WNW,290,4.9,11.0,37,0.00,,---,0.00,VWS V14.01,2013-03-14 18:10:00,
2013-03-14 14:11:00,49.6,24.5,30.27,WNW,290,4.9,4.9,37,0.00,,---,0.00,VWS V14.01,2013-03-14 18:11:00,
2013-03-14 14:14:00,49.8,24.6,30.27,North,5,8.7,8.7,37,0.00,,---,0.00,VWS V14.01,2013-03-14 18:14:00,
2013-03-14 14:15:00,49.8,24.6,30.27,North,5,8.7,8.7,37,0.00,,---,0.00,VWS V14.01,2013-03-14 18:15:00,
2013-03-14 14:16:00,49.8,24.6,30.27,North,5,8.7,8.7,37,0.00,,---,0.00,VWS V14.01,2013-03-14 18:16:00,
2013-03-14 14:19:00,49.8,24.6,30.27,West,259,5.8,5.8,37,0.00,,---,0.00,VWS V14.01,2013-03-14 18:19:00,
2013-03-14 14:20:00,49.8,24.6,30.27,West,259,5.8,5.8,37,0.00,,---,0.00,VWS V14.01,2013-03-14 18:20:00,
2013-03-14 14:21:00,49.6,24.5,30.27,NW,308,0.0,0.0,37,0.00,,---,0.00,VWS V14.01,2013-03-14 18:21:00,
2013-03-14 14:24:00,50.2,24.9,30.27,NW,316,3.6,3.6,37,0.00,,---,0.00,VWS V14.01,2013-03-14 18:24:00,
2013-03-14 14:25:00,50.2,24.9,30.27,West,275,5.4,5.4,37,0.00,,---,0.00,VWS V14.01,2013-03-14 18:25:00,
2013-03-14 14:26:00,50.2,24.9,30.27,West,275,5.4,5.4,37,0.00,,---,0.00,VWS V14.01,2013-03-14 18:26:00,
2013-03-14 14:30:00,50.2,24.9,30.27,WSW,252,11.0,11.0,37,0.00,,---,0.00,VWS V14.01,2013-03-14 18:30:00,
2013-03-14 14:32:00,50.2,24.9,30.27,WNW,299,3.6,11.0,37,0.00,,---,0.00,VWS V14.01,2013-03-14 18:32:00,
2013-03-14 14:35:00,51.1,25.7,30.27,SW,233,7.6,7.6,37,0.00,,---,0.00,VWS V14.01,2013-03-14 18:35:00,
2013-03-14 14:37:00,51.1,25.7,30.27,NW,319,3.6,5.8,37,0.00,,---,0.00,VWS V14.01,2013-03-14 18:37:00,
2013-03-14 14:38:00,51.1,25.7,30.27,West,266,5.4,5.4,37,0.00,,---,0.00,VWS V14.01,2013-03-14 18:38:00,
2013-03-14 14:40:00,50.5,25.2,30.24,NNW,331,5.4,5.4,37,0.00,,---,0.00,VWS V14.01,2013-03-14 18:40:00,
2013-03-14 14:42:00,50.5,25.2,30.24,West,277,8.7,8.7,37,0.00,,---,0.00,VWS V14.01,2013-03-14 18:42:00,
2013-03-14 14:43:00,50.5,25.2,30.24,West,277,8.7,8.7,37,0.00,,---,0.00,VWS V14.01,2013-03-14 18:43:00,
2013-03-14 14:45:00,50.7,25.4,30.24,West,277,8.7,8.7,37,0.00,,---,0.00,VWS V14.01,2013-03-14 18:45:00,
2013-03-14 14:46:00,50.7,25.4,30.24,West,277,8.7,8.7,37,0.00,,---,0.00,VWS V14.01,2013-03-14 18:46:00,
2013-03-14 14:47:00,50.7,25.4,30.24,NNW,328,7.6,7.6,37,0.00,,---,0.00,VWS V14.01,2013-03-14 18:47:00,
2013-03-14 14:48:00,50.7,25.4,30.24,North,353,5.8,5.8,37,0.00,,---,0.00,VWS V14.01,2013-03-14 18:48:00,
2013-03-14 14:50:00,50.9,25.6,30.24,WSW,238,6.3,6.3,37,0.00,,---,0.00,VWS V14.01,2013-03-14 18:50:00,
2013-03-14 14:51:00,50.9,25.6,30.24,NW,318,5.8,6.3,37,0.00,,---,0.00,VWS V14.01,2013-03-14 18:51:00,
2013-03-14 14:52:00,50.9,25.6,30.27,WNW,302,5.4,5.4,37,0.00,,---,0.00,VWS V14.01,2013-03-14 18:52:00,
2013-03-14 14:53:00,50.9,25.6,30.27,NNW,341,5.4,5.4,37,0.00,,---,0.00,VWS V14.01,2013-03-14 18:53:00,
2013-03-14 14:55:00,50.9,25.6,30.27,West,276,4.0,5.4,37,0.00,,---,0.00,VWS V14.01,2013-03-14 18:55:00,
2013-03-14 14:56:00,50.9,25.6,30.27,West,261,4.0,4.0,37,0.00,,---,0.00,VWS V14.01,2013-03-14 18:56:00,
2013-03-14 14:57:00,51.6,26.2,30.27,NNW,329,4.0,4.0,37,0.00,,---,0.00,VWS V14.01,2013-03-14 18:57:00,
2013-03-14 14:58:00,51.6,26.2,30.27,WSW,258,6.3,6.3,37,0.00,,---,0.00,VWS V14.01,2013-03-14 18:58:00,
2013-03-14 15:00:00,51.6,26.2,30.27,West,264,6.3,6.3,37,0.00,,---,0.00,VWS V14.01,2013-03-14 19:00:00,
2013-03-14 15:01:00,51.6,26.2,30.27,WSW,253,5.8,5.8,37,0.00,,---,0.00,VWS V14.01,2013-03-14 19:01:00,
2013-03-14 15:03:00,51.6,26.2,30.27,West,267,3.6,8.3,37,0.00,,---,0.00,VWS V14.01,2013-03-14 19:03:00,
2013-03-14 15:05:00,51.6,26.2,30.27,SW,225,2.7,2.7,37,0.00,,---,0.00,VWS V14.01,2013-03-14 19:05:00,
2013-03-14 15:06:00,51.8,25.7,30.24,NW,315,3.1,3.1,36,0.00,,---,0.00,VWS V14.01,2013-03-14 19:06:00,
2013-03-14 15:08:00,51.8,25.7,30.24,West,259,3.6,8.1,36,0.00,,---,0.00,VWS V14.01,2013-03-14 19:08:00,
2013-03-14 15:10:00,51.8,25.7,30.24,NW,321,5.4,5.4,36,0.00,,---,0.00,VWS V14.01,2013-03-14 19:10:00,
2013-03-14 15:11:00,51.6,26.2,30.24,NW,321,5.4,5.4,37,0.00,,---,0.00,VWS V14.01,2013-03-14 19:11:00,
2013-03-14 15:13:00,51.6,26.2,30.24,North,2,5.4,5.4,37,0.00,,---,0.00,VWS V14.01,2013-03-14 19:13:00,
2013-03-14 15:15:00,51.3,25.9,30.24,North,6,5.4,5.4,37,0.00,,---,0.00,VWS V14.01,2013-03-14 19:15:00,
2013-03-14 15:17:00,51.3,25.9,30.24,WNW,287,7.6,7.6,37,0.00,,---,0.00,VWS V14.01,2013-03-14 19:17:00,
2013-03-14 15:18:00,51.3,25.9,30.24,WNW,286,7.2,7.2,37,0.00,,---,0.00,VWS V14.01,2013-03-14 19:18:00,
2013-03-14 15:20:00,51.6,26.2,30.24,North,350,3.6,4.0,37,0.00,,---,0.00,VWS V14.01,2013-03-14 19:20:00,
2013-03-14 15:23:00,51.6,26.2,30.24,WSW,237,7.6,7.6,37,0.00,,---,0.00,VWS V14.01,2013-03-14 19:23:00,
2013-03-14 15:25:00,51.6,26.2,30.24,WSW,240,3.6,3.6,37,0.00,,---,0.00,VWS V14.01,2013-03-14 19:25:00,
2013-03-14 15:28:00,51.6,26.2,30.24,West,272,4.0,4.0,37,0.00,,---,0.00,VWS V14.01,2013-03-14 19:28:00,
2013-03-14 15:30:00,51.6,26.2,30.24,WSW,256,5.8,5.8,37,0.00,,---,0.00,VWS V14.01,2013-03-14 19:30:00,
2013-03-14 15:33:00,52.0,25.9,30.24,West,269,3.6,5.8,36,0.00,,---,0.00,VWS V14.01,2013-03-14 19:33:00,
2013-03-14 15:35:00,52.0,25.9,30.24,West,276,3.1,3.1,36,0.00,,---,0.00,VWS V14.01,2013-03-14 19:35:00,
2013-03-14 15:38:00,52.0,25.9,30.24,ENE,61,3.1,3.1,36,0.00,,---,0.00,VWS V14.01,2013-03-14 19:38:00,
2013-03-14 15:40:00,52.7,26.5,30.24,WSW,256,4.0,4.0,36,0.00,,---,0.00,VWS V14.01,2013-03-14 19:40:00,
2013-03-14 15:43:00,52.7,26.5,30.24,WNW,294,0.0,0.0,36,0.00,,---,0.00,VWS V14.01,2013-03-14 19:43:00,
2013-03-14 15:45:00,52.5,26.4,30.24,West,277,6.3,7.6,36,0.00,,---,0.00,VWS V14.01,2013-03-14 19:45:00,
2013-03-14 15:48:00,52.5,26.4,30.24,NW,312,10.1,10.1,36,0.00,,---,0.00,VWS V14.01,2013-03-14 19:48:00,
2013-03-14 15:49:00,52.5,26.4,30.24,NW,312,10.1,10.1,36,0.00,,---,0.00,VWS V14.01,2013-03-14 19:49:00,
2013-03-14 15:50:00,52.5,26.4,30.24,NW,312,10.1,10.1,36,0.00,,---,0.00,VWS V14.01,2013-03-14 19:50:00,
2013-03-14 15:53:00,52.9,26.7,30.24,NNW,342,6.3,6.3,36,0.00,,---,0.00,VWS V14.01,2013-03-14 19:53:00,
2013-03-14 15:54:00,52.9,26.7,30.24,NNW,342,6.3,6.3,36,0.00,,---,0.00,VWS V14.01,2013-03-14 19:54:00,
2013-03-14 15:55:00,52.9,26.7,30.24,NW,325,5.8,8.3,36,0.00,,---,0.00,VWS V14.01,2013-03-14 19:55:00,
2013-03-14 15:58:00,53.1,26.8,30.24,NNW,329,5.4,5.4,36,0.00,,---,0.00,VWS V14.01,2013-03-14 19:58:00,
2013-03-14 15:59:00,53.1,26.8,30.24,NNW,329,5.4,5.4,36,0.00,,---,0.00,VWS V14.01,2013-03-14 19:59:00,
2013-03-14 16:00:00,52.9,26.7,30.24,WNW,286,2.7,5.4,36,0.00,,---,0.00,VWS V14.01,2013-03-14 20:00:00,
2013-03-14 16:03:00,52.9,26.7,30.24,West,265,8.1,8.1,36,0.00,,---,0.00,VWS V14.01,2013-03-14 20:03:00,
2013-03-14 16:04:00,52.9,26.7,30.24,WNW,285,7.6,7.6,36,0.00,,---,0.00,VWS V14.01,2013-03-14 20:04:00,
2013-03-14 16:05:00,52.9,26.7,30.24,West,263,5.8,5.8,36,0.00,,---,0.00,VWS V14.01,2013-03-14 20:05:00,
2013-03-14 16:09:00,52.3,26.2,30.24,WNW,295,3.6,3.6,36,0.00,,---,0.00,VWS V14.01,2013-03-14 20:09:00,
2013-03-14 16:10:00,52.3,26.2,30.24,West,271,3.6,6.3,36,0.00,,---,0.00,VWS V14.01,2013-03-14 20:10:00,
2013-03-14 16:14:00,52.3,26.2,30.24,WNW,290,5.4,5.4,36,0.00,,---,0.00,VWS V14.01,2013-03-14 20:14:00,
2013-03-14 16:15:00,52.3,26.2,30.24,West,260,8.1,8.1,36,0.00,,---,0.00,VWS V14.01,2013-03-14 20:15:00,
2013-03-14 16:19:00,52.7,26.5,30.24,WNW,301,4.0,8.1,36,0.00,,---,0.00,VWS V14.01,2013-03-14 20:19:00,
2013-03-14 16:21:00,52.7,26.5,30.24,NW,324,5.4,5.4,36,0.00,,---,0.00,VWS V14.01,2013-03-14 20:21:00,
2013-03-14 16:24:00,52.7,26.5,30.24,NW,304,5.8,10.1,36,0.00,,---,0.00,VWS V14.01,2013-03-14 20:24:00,
2013-03-14 16:26:00,52.7,26.5,30.24,NW,304,5.8,5.8,36,0.00,,---,0.00,VWS V14.01,2013-03-14 20:26:00,
2013-03-14 16:29:00,52.7,26.5,30.24,WNW,297,10.1,10.1,36,0.00,,---,0.00,VWS V14.01,2013-03-14 20:29:00,
2013-03-14 16:31:00,52.7,26.5,30.24,NW,311,8.3,12.8,36,0.00,,---,0.00,VWS V14.01,2013-03-14 20:31:00,
2013-03-14 16:34:00,52.2,26.0,30.24,WNW,293,9.6,9.6,36,0.00,,---,0.00,VWS V14.01,2013-03-14 20:34:00,
2013-03-14 16:36:00,52.2,26.0,30.24,West,264,7.6,8.7,36,0.00,,---,0.00,VWS V14.01,2013-03-14 20:36:00,
2013-03-14 16:39:00,52.3,26.2,30.24,WNW,283,3.1,3.1,36,0.00,,---,0.00,VWS V14.01,2013-03-14 20:39:00,
2013-03-14 16:41:00,52.2,26.0,30.24,WNW,300,8.3,8.3,36,0.00,,---,0.00,VWS V14.01,2013-03-14 20:41:00,
2013-03-14 16:44:00,52.2,26.0,30.24,WNW,300,8.3,8.3,36,0.00,,---,0.00,VWS V14.01,2013-03-14 20:44:00,
2013-03-14 16:47:00,52.0,25.9,30.24,WSW,241,6.3,9.6,36,0.00,,---,0.00,VWS V14.01,2013-03-14 20:47:00,
2013-03-14 16:49:00,52.0,25.9,30.24,NNW,327,4.5,4.5,36,0.00,,---,0.00,VWS V14.01,2013-03-14 20:49:00,
2013-03-14 16:52:00,52.0,25.9,30.24,NNW,327,4.5,4.5,36,0.00,,---,0.00,VWS V14.01,2013-03-14 20:52:00,
2013-03-14 16:54:00,52.0,25.9,30.24,WSW,247,7.2,7.2,36,0.00,,---,0.00,VWS V14.01,2013-03-14 20:54:00,
2013-03-14 16:57:00,52.5,26.4,30.24,West,261,7.6,7.6,36,0.00,,---,0.00,VWS V14.01,2013-03-14 20:57:00,
2013-03-14 16:59:00,52.5,26.4,30.24,NNW,343,4.9,4.9,36,0.00,,---,0.00,VWS V14.01,2013-03-14 20:59:00,
2013-03-14 17:02:00,52.5,26.4,30.24,WNW,301,8.1,9.6,36,0.00,,---,0.00,VWS V14.01,2013-03-14 21:02:00,
2013-03-14 17:04:00,52.5,26.4,30.24,West,260,0.0,2.7,36,0.00,,---,0.00,VWS V14.01,2013-03-14 21:04:00,
2013-03-14 17:07:00,52.3,26.2,30.24,NW,318,3.1,3.1,36,0.00,,---,0.00,VWS V14.01,2013-03-14 21:07:00,
2013-03-14 17:09:00,52.3,26.2,30.24,NNW,338,3.6,3.6,36,0.00,,---,0.00,VWS V14.01,2013-03-14 21:09:00,
2013-03-14 17:10:00,52.3,26.2,30.24,NNW,338,3.6,3.6,36,0.00,,---,0.00,VWS V14.01,2013-03-14 21:10:00,
2013-03-14 17:12:00,52.3,26.2,30.24,NW,318,3.1,3.1,36,0.00,,---,0.00,VWS V14.01,2013-03-14 21:12:00,
2013-03-14 17:14:00,52.3,26.2,30.24,West,277,5.8,5.8,36,0.00,,---,0.00,VWS V14.01,2013-03-14 21:14:00,
2013-03-14 17:15:00,52.2,26.0,30.24,West,277,5.8,5.8,36,0.00,,---,0.00,VWS V14.01,2013-03-14 21:15:00,
2013-03-14 17:17:00,52.2,26.0,30.24,West,264,4.9,4.9,36,0.00,,---,0.00,VWS V14.01,2013-03-14 21:17:00,
2013-03-14 17:19:00,52.2,26.0,30.24,WNW,297,8.1,8.1,36,0.00,,---,0.00,VWS V14.01,2013-03-14 21:19:00,
2013-03-14 17:20:00,52.2,26.0,30.24,WNW,297,8.1,8.1,36,0.00,,---,0.00,VWS V14.01,2013-03-14 21:20:00,
2013-03-14 17:22:00,52.2,26.0,30.24,WNW,294,6.3,6.3,36,0.00,,---,0.00,VWS V14.01,2013-03-14 21:22:00,
2013-03-14 17:24:00,52.2,26.0,30.24,WNW,293,3.1,6.3,36,0.00,,---,0.00,VWS V14.01,2013-03-14 21:24:00,
2013-03-14 17:25:00,52.2,26.0,30.24,WNW,293,3.1,3.1,36,0.00,,---,0.00,VWS V14.01,2013-03-14 21:25:00,
2013-03-14 17:27:00,52.3,26.2,30.24,West,268,3.6,3.6,36,0.00,,---,0.00,VWS V14.01,2013-03-14 21:27:00,
2013-03-14 17:29:00,52.3,26.2,30.24,WSW,253,3.6,6.3,36,0.00,,---,0.00,VWS V14.01,2013-03-14 21:29:00,
2013-03-14 17:30:00,52.3,26.2,30.24,WSW,253,3.6,6.3,36,0.00,,---,0.00,VWS V14.01,2013-03-14 21:30:00,
2013-03-14 17:32:00,52.3,26.2,30.24,WNW,287,3.6,3.6,36,0.00,,---,0.00,VWS V14.01,2013-03-14 21:32:00,
2013-03-14 17:34:00,52.2,26.0,30.24,WSW,250,5.8,8.1,36,0.00,,---,0.00,VWS V14.01,2013-03-14 21:34:00,
2013-03-14 17:35:00,52.2,26.0,30.24,WSW,250,5.8,8.1,36,0.00,,---,0.00,VWS V14.01,2013-03-14 21:35:00,
2013-03-14 17:37:00,52.2,26.0,30.24,West,261,5.8,5.8,36,0.00,,---,0.00,VWS V14.01,2013-03-14 21:37:00,
2013-03-14 17:39:00,52.2,26.0,30.24,NNW,334,4.0,4.0,36,0.00,,---,0.00,VWS V14.01,2013-03-14 21:39:00,
2013-03-14 17:40:00,52.2,26.0,30.24,NNW,334,4.0,4.0,36,0.00,,---,0.00,VWS V14.01,2013-03-14 21:40:00,
2013-03-14 17:42:00,51.6,26.2,30.24,SW,234,4.0,4.0,37,0.00,,---,0.00,VWS V14.01,2013-03-14 21:42:00,
2013-03-14 17:44:00,51.6,26.2,30.24,WNW,285,5.8,5.8,37,0.00,,---,0.00,VWS V14.01,2013-03-14 21:44:00,
2013-03-14 17:45:00,51.6,26.2,30.24,WNW,285,5.8,5.8,37,0.00,,---,0.00,VWS V14.01,2013-03-14 21:45:00,
2013-03-14 17:47:00,51.6,26.2,30.24,NNW,345,3.1,3.1,37,0.00,,---,0.00,VWS V14.01,2013-03-14 21:47:00,
2013-03-14 17:49:00,51.4,26.0,30.24,WSW,247,3.1,3.1,37,0.00,,---,0.00,VWS V14.01,2013-03-14 21:49:00,
2013-03-14 17:50:00,51.4,26.0,30.24,WSW,247,3.1,3.1,37,0.00,,---,0.00,VWS V14.01,2013-03-14 21:50:00,
2013-03-14 17:52:00,51.4,26.0,30.24,WSW,239,4.0,6.3,37,0.00,,---,0.00,VWS V14.01,2013-03-14 21:52:00,
2013-03-14 17:54:00,51.4,26.0,30.24,NW,304,7.6,7.6,37,0.00,,---,0.00,VWS V14.01,2013-03-14 21:54:00,
2013-03-14 17:55:00,51.4,26.0,30.24,NW,304,7.6,7.6,37,0.00,,---,0.00,VWS V14.01,2013-03-14 21:55:00,
2013-03-14 17:58:00,51.1,25.7,30.24,West,278,3.6,3.6,37,0.00,,---,0.00,VWS V14.01,2013-03-14 21:58:00,
2013-03-14 17:59:00,51.1,25.7,30.24,WSW,252,4.0,4.0,37,0.00,,---,0.00,VWS V14.01,2013-03-14 21:59:00,
2013-03-14 18:00:00,51.1,25.7,30.24,WNW,296,4.0,4.0,37,0.00,,---,0.00,VWS V14.01,2013-03-14 22:00:00,
2013-03-14 18:03:00,51.1,25.7,30.24,WNW,288,4.5,7.6,37,0.00,,---,0.00,VWS V14.01,2013-03-14 22:03:00,
2013-03-14 18:04:00,50.7,25.4,30.24,NW,319,6.3,6.3,37,0.00,,---,0.00,VWS V14.01,2013-03-14 22:04:00,
2013-03-14 18:05:00,50.7,25.4,30.24,NW,319,6.3,6.3,37,0.00,,---,0.00,VWS V14.01,2013-03-14 22:05:00,
2013-03-14 18:08:00,50.7,25.4,30.24,WSW,246,3.6,3.6,37,0.00,,---,0.00,VWS V14.01,2013-03-14 22:08:00,
2013-03-14 18:10:00,50.7,25.4,30.24,West,273,2.7,2.7,37,0.00,,---,0.00,VWS V14.01,2013-03-14 22:10:00,
2013-03-14 18:13:00,50.7,25.4,30.24,NW,312,3.6,5.8,37,0.00,,---,0.00,VWS V14.01,2013-03-14 22:13:00,
2013-03-14 18:15:00,50.5,25.2,30.24,NW,312,3.6,3.6,37,0.00,,---,0.00,VWS V14.01,2013-03-14 22:15:00,
2013-03-14 18:18:00,50.5,25.2,30.24,WNW,286,3.1,3.1,37,0.00,,---,0.00,VWS V14.01,2013-03-14 22:18:00,
2013-03-14 18:20:00,50.5,25.2,30.24,WNW,286,3.1,3.1,37,0.00,,---,0.00,VWS V14.01,2013-03-14 22:20:00,
2013-03-14 18:23:00,50.4,25.1,30.24,WNW,284,0.0,0.0,37,0.00,,---,0.00,VWS V14.01,2013-03-14 22:23:00,
2013-03-14 18:25:00,50.4,25.1,30.24,West,279,3.1,3.1,37,0.00,,---,0.00,VWS V14.01,2013-03-14 22:25:00,
2013-03-14 18:28:00,50.4,25.1,30.24,West,262,5.8,5.8,37,0.00,,---,0.00,VWS V14.01,2013-03-14 22:28:00,
2013-03-14 18:30:00,50.4,25.1,30.24,West,275,4.0,4.9,37,0.00,,---,0.00,VWS V14.01,2013-03-14 22:30:00,
2013-03-14 18:33:00,49.8,24.6,30.24,West,273,5.4,5.4,37,0.00,,---,0.00,VWS V14.01,2013-03-14 22:33:00,
2013-03-14 18:35:00,49.8,24.6,30.24,SW,222,6.3,6.3,37,0.00,,---,0.00,VWS V14.01,2013-03-14 22:35:00,
2013-03-14 18:38:00,49.6,24.5,30.24,WNW,286,5.4,6.3,37,0.00,,---,0.00,VWS V14.01,2013-03-14 22:38:00,
2013-03-14 18:40:00,49.6,24.5,30.24,WSW,239,3.6,3.6,37,0.00,,---,0.00,VWS V14.01,2013-03-14 22:40:00,
2013-03-14 18:43:00,49.3,24.1,30.24,WSW,239,3.6,3.6,37,0.00,,---,0.00,VWS V14.01,2013-03-14 22:43:00,
2013-03-14 18:45:00,49.1,24.0,30.24,West,276,4.0,4.0,37,0.00,,---,0.00,VWS V14.01,2013-03-14 22:45:00,
2013-03-14 18:46:00,49.1,24.0,30.24,West,276,4.0,4.0,37,0.00,,---,0.00,VWS V14.01,2013-03-14 22:46:00,
2013-03-14 18:48:00,49.1,24.0,30.24,SW,220,3.6,3.6,37,0.00,,---,0.00,VWS V14.01,2013-03-14 22:48:00,
2013-03-14 18:50:00,48.9,23.8,30.24,SW,220,3.6,3.6,37,0.00,,---,0.00,VWS V14.01,2013-03-14 22:50:00,
2013-03-14 18:51:00,48.9,23.8,30.24,SW,220,3.6,3.6,37,0.00,,---,0.00,VWS V14.01,2013-03-14 22:51:00,
2013-03-14 18:53:00,48.9,23.8,30.24,WNW,291,4.0,4.0,37,0.00,,---,0.00,VWS V14.01,2013-03-14 22:53:00,
2013-03-14 18:55:00,48.7,23.6,30.24,West,265,3.1,3.1,37,0.00,,---,0.00,VWS V14.01,2013-03-14 22:55:00,
2013-03-14 18:56:00,48.7,23.6,30.24,West,265,3.1,3.1,37,0.00,,---,0.00,VWS V14.01,2013-03-14 22:56:00,
2013-03-14 18:58:00,48.4,23.3,30.24,WNW,292,4.0,4.0,37,0.00,,---,0.00,VWS V14.01,2013-03-14 22:58:00,
2013-03-14 19:00:00,48.4,23.3,30.24,WNW,299,3.1,3.1,37,0.00,,---,0.00,VWS V14.01,2013-03-14 23:00:00,
2013-03-14 19:01:00,48.4,23.3,30.24,WNW,299,3.1,3.1,37,0.00,,---,0.00,VWS V14.01,2013-03-14 23:01:00,
2013-03-14 19:03:00,48.2,23.2,30.24,WNW,298,2.2,2.2,37,0.00,,---,0.00,VWS V14.01,2013-03-14 23:03:00,
2013-03-14 19:05:00,48.2,23.2,30.24,WNW,298,2.2,2.2,37,0.00,,---,0.00,VWS V14.01,2013-03-14 23:05:00,
2013-03-14 19:06:00,48.2,23.2,30.24,West,281,4.0,4.0,37,0.00,,---,0.00,VWS V14.01,2013-03-14 23:06:00,
2013-03-14 19:08:00,47.8,22.9,30.24,West,264,2.7,2.7,37,0.00,,---,0.00,VWS V14.01,2013-03-14 23:08:00,
2013-03-14 19:10:00,47.7,22.7,30.24,WNW,282,2.7,2.7,37,0.00,,---,0.00,VWS V14.01,2013-03-14 23:10:00,
2013-03-14 19:11:00,47.3,22.4,30.24,WNW,282,2.7,2.7,37,0.00,,---,0.00,VWS V14.01,2013-03-14 23:11:00,
2013-03-14 19:13:00,47.3,22.4,30.24,West,279,3.6,3.6,37,0.00,,---,0.00,VWS V14.01,2013-03-14 23:13:00,
2013-03-14 19:15:00,47.3,22.4,30.24,WNW,282,0.0,3.1,37,0.00,,---,0.00,VWS V14.01,2013-03-14 23:15:00,
2013-03-14 19:16:00,46.9,22.0,30.24,WNW,282,0.0,3.1,37,0.00,,---,0.00,VWS V14.01,2013-03-14 23:16:00,
2013-03-14 19:19:00,46.9,22.0,30.24,WNW,282,0.0,0.0,37,0.00,,---,0.00,VWS V14.01,2013-03-14 23:19:00,
2013-03-14 19:20:00,46.9,22.0,30.24,WNW,285,0.0,0.0,37,0.00,,---,0.00,VWS V14.01,2013-03-14 23:20:00,
2013-03-14 19:21:00,46.9,22.0,30.24,WNW,285,0.0,0.0,37,0.00,,---,0.00,VWS V14.01,2013-03-14 23:21:00,
2013-03-14 19:24:00,45.9,21.7,30.24,West,272,0.0,0.0,38,0.00,,---,0.00,VWS V14.01,2013-03-14 23:24:00,
2013-03-14 19:25:00,45.9,21.7,30.24,West,272,0.0,0.0,38,0.00,,---,0.00,VWS V14.01,2013-03-14 23:25:00,
2013-03-14 19:26:00,45.9,21.7,30.24,West,272,0.0,0.0,38,0.00,,---,0.00,VWS V14.01,2013-03-14 23:26:00,
2013-03-14 19:27:00,45.7,21.5,30.24,West,272,0.0,0.0,38,0.00,,---,0.00,VWS V14.01,2013-03-14 23:27:00,
2013-03-14 19:29:00,45.7,21.5,30.24,WNW,283,0.0,0.0,38,0.00,,---,0.00,VWS V14.01,2013-03-14 23:29:00,
2013-03-14 19:30:00,45.7,21.5,30.24,NW,307,0.0,0.0,38,0.00,,---,0.00,VWS V14.01,2013-03-14 23:30:00,
2013-03-14 19:31:00,45.7,21.5,30.24,NW,307,0.0,0.0,38,0.00,,---,0.00,VWS V14.01,2013-03-14 23:31:00,
2013-03-14 19:32:00,45.0,20.9,30.24,NW,307,0.0,0.0,38,0.00,,---,0.00,VWS V14.01,2013-03-14 23:32:00,
2013-03-14 19:34:00,44.8,20.7,30.24,WNW,300,0.0,0.0,38,0.00,,---,0.00,VWS V14.01,2013-03-14 23:34:00,
2013-03-14 19:35:00,44.6,20.6,30.24,WNW,300,0.0,0.0,38,0.00,,---,0.00,VWS V14.01,2013-03-14 23:35:00,
2013-03-14 19:36:00,44.6,20.6,30.24,WNW,300,0.0,0.0,38,0.00,,---,0.00,VWS V14.01,2013-03-14 23:36:00,
2013-03-14 19:37:00,44.4,20.4,30.24,WNW,300,0.0,0.0,38,0.00,,---,0.00,VWS V14.01,2013-03-14 23:37:00,
2013-03-14 19:39:00,44.4,20.4,30.24,West,277,0.0,0.0,38,0.00,,---,0.00,VWS V14.01,2013-03-14 23:39:00,
2013-03-14 19:40:00,44.4,20.4,30.24,West,277,0.0,0.0,38,0.00,,---,0.00,VWS V14.01,2013-03-14 23:40:00,
2013-03-14 19:41:00,44.4,20.4,30.24,West,277,0.0,0.0,38,0.00,,---,0.00,VWS V14.01,2013-03-14 23:41:00,
2013-03-14 19:42:00,44.1,20.1,30.24,West,277,0.0,0.0,38,0.00,,---,0.00,VWS V14.01,2013-03-14 23:42:00,
2013-03-14 19:44:00,44.1,20.1,30.24,West,277,0.0,0.0,38,0.00,,---,0.00,VWS V14.01,2013-03-14 23:44:00,
2013-03-14 19:45:00,44.1,20.1,30.24,West,277,0.0,0.0,38,0.00,,---,0.00,VWS V14.01,2013-03-14 23:45:00,
2013-03-14 19:46:00,44.1,20.1,30.24,West,277,0.0,0.0,38,0.00,,---,0.00,VWS V14.01,2013-03-14 23:46:00,
2013-03-14 19:47:00,43.5,19.6,30.24,West,277,0.0,0.0,38,0.00,,---,0.00,VWS V14.01,2013-03-14 23:47:00,
2013-03-14 19:49:00,43.5,19.6,30.24,West,277,0.0,0.0,38,0.00,,---,0.00,VWS V14.01,2013-03-14 23:49:00,
2013-03-14 19:50:00,43.3,19.5,30.24,West,277,0.0,0.0,38,0.00,,---,0.00,VWS V14.01,2013-03-14 23:50:00,
2013-03-14 19:51:00,43.3,19.5,30.24,West,277,0.0,0.0,38,0.00,,---,0.00,VWS V14.01,2013-03-14 23:51:00,
2013-03-14 19:53:00,43.3,19.5,30.24,West,277,0.0,0.0,38,0.00,,---,0.00,VWS V14.01,2013-03-14 23:53:00,
2013-03-14 19:54:00,43.3,19.5,30.24,West,277,0.0,0.0,38,0.00,,---,0.00,VWS V14.01,2013-03-14 23:54:00,
2013-03-14 19:55:00,43.3,19.5,30.24,West,277,0.0,0.0,38,0.00,,---,0.00,VWS V14.01,2013-03-14 23:55:00,
2013-03-14 19:56:00,43.3,19.5,30.24,West,277,0.0,0.0,38,0.00,,---,0.00,VWS V14.01,2013-03-14 23:56:00,
2013-03-14 19:58:00,42.4,19.2,30.24,West,277,0.0,0.0,39,0.00,,---,0.00,VWS V14.01,2013-03-14 23:58:00,
2013-03-14 19:59:00,42.3,19.1,30.24,West,277,0.0,0.0,39,0.00,,---,0.00,VWS V14.01,2013-03-14 23:59:00,
2013-03-14 20:00:00,42.1,18.9,30.24,West,277,0.0,0.0,39,0.00,,---,0.00,VWS V14.01,2013-03-15 00:00:00,
2013-03-14 20:01:00,42.1,18.9,30.24,West,277,0.0,0.0,39,0.00,,---,0.00,VWS V14.01,2013-03-15 00:01:00,
2013-03-14 20:03:00,41.9,18.8,30.24,West,277,0.0,0.0,39,0.00,,---,0.00,VWS V14.01,2013-03-15 00:03:00,
2013-03-14 20:04:00,41.9,18.8,30.24,West,277,0.0,0.0,39,0.00,,---,0.00,VWS V14.01,2013-03-15 00:04:00,
2013-03-14 20:06:00,41.9,18.8,30.24,West,277,0.0,0.0,39,0.00,,---,0.00,VWS V14.01,2013-03-15 00:06:00,
2013-03-14 20:08:00,41.5,18.4,30.24,West,277,0.0,0.0,39,0.00,,---,0.00,VWS V14.01,2013-03-15 00:08:00,
2013-03-14 20:09:00,41.5,18.4,30.24,West,277,0.0,0.0,39,0.00,,---,0.00,VWS V14.01,2013-03-15 00:09:00,
2013-03-14 20:11:00,41.2,18.1,30.24,West,277,0.0,0.0,39,0.00,,---,0.00,VWS V14.01,2013-03-15 00:11:00,
2013-03-14 20:13:00,41.2,18.1,30.24,West,277,0.0,0.0,39,0.00,,---,0.00,VWS V14.01,2013-03-15 00:13:00,
2013-03-14 20:14:00,41.2,18.1,30.24,West,277,0.0,0.0,39,0.00,,---,0.00,VWS V14.01,2013-03-15 00:14:00,
2013-03-14 20:16:00,40.8,17.8,30.24,West,277,0.0,0.0,39,0.00,,---,0.00,VWS V14.01,2013-03-15 00:16:00,
2013-03-14 20:18:00,40.6,17.6,30.24,West,277,0.0,0.0,39,0.00,,---,0.00,VWS V14.01,2013-03-15 00:18:00,
2013-03-14 20:19:00,40.6,17.6,30.24,West,277,0.0,0.0,39,0.00,,---,0.00,VWS V14.01,2013-03-15 00:19:00,
2013-03-14 20:22:00,40.6,17.6,30.24,West,277,0.0,0.0,39,0.00,,---,0.00,VWS V14.01,2013-03-15 00:22:00,
2013-03-14 20:23:00,40.6,17.6,30.24,West,277,0.0,0.0,39,0.00,,---,0.00,VWS V14.01,2013-03-15 00:23:00,
2013-03-14 20:24:00,40.6,17.6,30.24,West,277,0.0,0.0,39,0.00,,---,0.00,VWS V14.01,2013-03-15 00:24:00,
2013-03-14 20:27:00,40.6,17.6,30.24,West,277,0.0,0.0,39,0.00,,---,0.00,VWS V14.01,2013-03-15 00:27:00,
2013-03-14 20:28:00,40.6,17.6,30.24,West,277,0.0,0.0,39,0.00,,---,0.00,VWS V14.01,2013-03-15 00:28:00,
2013-03-14 20:29:00,40.6,17.6,30.24,West,277,0.0,0.0,39,0.00,,---,0.00,VWS V14.01,2013-03-15 00:29:00,
2013-03-14 20:32:00,40.6,17.6,30.24,West,277,0.0,0.0,39,0.00,,---,0.00,VWS V14.01,2013-03-15 00:32:00,
2013-03-14 20:33:00,40.6,17.6,30.24,West,277,0.0,0.0,39,0.00,,---,0.00,VWS V14.01,2013-03-15 00:33:00,
2013-03-14 20:34:00,39.7,16.8,30.24,West,277,0.0,0.0,39,0.00,,---,0.00,VWS V14.01,2013-03-15 00:34:00,
2013-03-14 20:37:00,39.7,16.8,30.24,West,277,0.0,0.0,39,0.00,,---,0.00,VWS V14.01,2013-03-15 00:37:00,
2013-03-14 20:38:00,39.7,16.8,30.24,West,277,0.0,0.0,39,0.00,,---,0.00,VWS V14.01,2013-03-15 00:38:00,
2013-03-14 20:39:00,39.7,16.8,30.24,West,277,0.0,0.0,39,0.00,,---,0.00,VWS V14.01,2013-03-15 00:39:00,
2013-03-14 20:42:00,39.4,16.5,30.24,West,277,0.0,0.0,39,0.00,,---,0.00,VWS V14.01,2013-03-15 00:42:00,
2013-03-14 20:43:00,39.4,16.5,30.24,West,277,0.0,0.0,39,0.00,,---,0.00,VWS V14.01,2013-03-15 00:43:00,
2013-03-14 20:44:00,39.2,16.3,30.24,West,277,0.0,0.0,39,0.00,,---,0.00,VWS V14.01,2013-03-15 00:44:00,
2013-03-14 20:47:00,39.2,16.3,30.24,West,277,0.0,0.0,39,0.00,,---,0.00,VWS V14.01,2013-03-15 00:47:00,
2013-03-14 20:48:00,39.2,16.3,30.24,West,277,0.0,0.0,39,0.00,,---,0.00,VWS V14.01,2013-03-15 00:48:00,
2013-03-14 20:49:00,39.2,16.3,30.24,West,277,0.0,0.0,39,0.00,,---,0.00,VWS V14.01,2013-03-15 00:49:00,
2013-03-14 20:53:00,39.2,16.3,30.27,West,277,0.0,0.0,39,0.00,,---,0.00,VWS V14.01,2013-03-15 00:53:00,
2013-03-14 20:54:00,39.2,16.3,30.27,West,277,0.0,0.0,39,0.00,,---,0.00,VWS V14.01,2013-03-15 00:54:00,
2013-03-14 20:58:00,37.9,15.8,30.27,West,277,0.0,0.0,40,0.00,,---,0.00,VWS V14.01,2013-03-15 00:58:00,
2013-03-14 20:59:00,37.8,15.6,30.27,West,277,0.0,0.0,40,0.00,,---,0.00,VWS V14.01,2013-03-15 00:59:00,
2013-03-14 21:03:00,37.8,15.6,30.27,West,277,0.0,0.0,40,0.00,,---,0.00,VWS V14.01,2013-03-15 01:03:00,
2013-03-14 21:04:00,37.8,15.6,30.24,West,277,0.0,0.0,40,0.00,,---,0.00,VWS V14.01,2013-03-15 01:04:00,
2013-03-14 21:08:00,37.0,15.5,30.24,West,277,0.0,0.0,41,0.00,,---,0.00,VWS V14.01,2013-03-15 01:08:00,
2013-03-14 21:10:00,37.0,15.5,30.24,West,277,0.0,0.0,41,0.00,,---,0.00,VWS V14.01,2013-03-15 01:10:00,
2013-03-14 21:13:00,37.0,15.5,30.24,West,277,0.0,0.0,41,0.00,,---,0.00,VWS V14.01,2013-03-15 01:13:00,
2013-03-14 21:15:00,37.0,15.5,30.24,West,277,0.0,0.0,41,0.00,,---,0.00,VWS V14.01,2013-03-15 01:15:00,
2013-03-14 21:18:00,37.0,15.5,30.24,West,277,0.0,0.0,41,0.00,,---,0.00,VWS V14.01,2013-03-15 01:18:00,
2013-03-14 21:20:00,37.0,15.5,30.27,West,277,0.0,0.0,41,0.00,,---,0.00,VWS V14.01,2013-03-15 01:20:00,
2013-03-14 21:23:00,36.5,15.1,30.27,West,277,0.0,0.0,41,0.00,,---,0.00,VWS V14.01,2013-03-15 01:23:00,
2013-03-14 21:24:00,36.5,15.1,30.27,West,277,0.0,0.0,41,0.00,,---,0.00,VWS V14.01,2013-03-15 01:24:00,
2013-03-14 21:25:00,36.5,15.1,30.27,West,277,0.0,0.0,41,0.00,,---,0.00,VWS V14.01,2013-03-15 01:25:00,
2013-03-14 21:28:00,36.5,15.1,30.27,West,277,0.0,0.0,41,0.00,,---,0.00,VWS V14.01,2013-03-15 01:28:00,
2013-03-14 21:29:00,36.5,15.1,30.27,West,277,0.0,0.0,41,0.00,,---,0.00,VWS V14.01,2013-03-15 01:29:00,
2013-03-14 21:30:00,36.5,15.1,30.27,West,277,0.0,0.0,41,0.00,,---,0.00,VWS V14.01,2013-03-15 01:30:00,
2013-03-14 21:33:00,36.5,15.1,30.27,West,277,0.0,0.0,41,0.00,,---,0.00,VWS V14.01,2013-03-15 01:33:00,
2013-03-14 21:34:00,36.1,14.7,30.27,West,277,0.0,0.0,41,0.00,,---,0.00,VWS V14.01,2013-03-15 01:34:00,
2013-03-14 21:35:00,36.1,14.7,30.27,West,277,0.0,0.0,41,0.00,,---,0.00,VWS V14.01,2013-03-15 01:35:00,
2013-03-14 21:38:00,36.0,14.6,30.27,West,277,0.0,0.0,41,0.00,,---,0.00,VWS V14.01,2013-03-15 01:38:00,
2013-03-14 21:39:00,36.0,14.6,30.27,West,277,0.0,0.0,41,0.00,,---,0.00,VWS V14.01,2013-03-15 01:39:00,
2013-03-14 21:40:00,36.0,14.6,30.27,West,277,0.0,0.0,41,0.00,,---,0.00,VWS V14.01,2013-03-15 01:40:00,
2013-03-14 21:43:00,36.0,14.6,30.27,West,277,0.0,0.0,41,0.00,,---,0.00,VWS V14.01,2013-03-15 01:43:00,
2013-03-14 21:44:00,36.0,14.6,30.27,West,277,0.0,0.0,41,0.00,,---,0.00,VWS V14.01,2013-03-15 01:44:00,
2013-03-14 21:45:00,35.8,14.4,30.27,West,277,0.0,0.0,41,0.00,,---,0.00,VWS V14.01,2013-03-15 01:45:00,
2013-03-14 21:48:00,35.8,14.4,30.27,West,277,0.0,0.0,41,0.00,,---,0.00,VWS V14.01,2013-03-15 01:48:00,
2013-03-14 21:49:00,35.8,14.4,30.27,West,277,0.0,0.0,41,0.00,,---,0.00,VWS V14.01,2013-03-15 01:49:00,
2013-03-14 21:50:00,35.8,14.4,30.27,West,277,0.0,0.0,41,0.00,,---,0.00,VWS V14.01,2013-03-15 01:50:00,
2013-03-14 21:53:00,35.8,14.9,30.27,West,277,0.0,0.0,42,0.00,,---,0.00,VWS V14.01,2013-03-15 01:53:00,
2013-03-14 21:54:00,35.8,14.9,30.27,West,277,0.0,0.0,42,0.00,,---,0.00,VWS V14.01,2013-03-15 01:54:00,
2013-03-14 21:55:00,35.8,14.9,30.27,West,277,0.0,0.0,42,0.00,,---,0.00,VWS V14.01,2013-03-15 01:55:00,
2013-03-14 21:58:00,35.8,14.9,30.27,West,277,0.0,0.0,42,0.00,,---,0.00,VWS V14.01,2013-03-15 01:58:00,
2013-03-14 21:59:00,35.8,14.9,30.27,West,277,0.0,0.0,42,0.00,,---,0.00,VWS V14.01,2013-03-15 01:59:00,
2013-03-14 22:00:00,35.6,15.3,30.27,West,277,0.0,0.0,43,0.00,,---,0.00,VWS V14.01,2013-03-15 02:00:00,
2013-03-14 22:03:00,35.6,15.3,30.27,West,277,0.0,0.0,43,0.00,,---,0.00,VWS V14.01,2013-03-15 02:03:00,
2013-03-14 22:04:00,35.6,15.3,30.27,West,277,0.0,0.0,43,0.00,,---,0.00,VWS V14.01,2013-03-15 02:04:00,
2013-03-14 22:05:00,35.6,15.3,30.27,West,277,0.0,0.0,43,0.00,,---,0.00,VWS V14.01,2013-03-15 02:05:00,
2013-03-14 22:08:00,35.6,15.3,30.27,West,277,0.0,0.0,43,0.00,,---,0.00,VWS V14.01,2013-03-15 02:08:00,
2013-03-14 22:09:00,35.6,15.3,30.27,West,277,0.0,0.0,43,0.00,,---,0.00,VWS V14.01,2013-03-15 02:09:00,
2013-03-14 22:10:00,35.6,15.3,30.27,West,277,0.0,0.0,43,0.00,,---,0.00,VWS V14.01,2013-03-15 02:10:00,
2013-03-14 22:13:00,35.6,15.3,30.27,West,277,0.0,0.0,43,0.00,,---,0.00,VWS V14.01,2013-03-15 02:13:00,
2013-03-14 22:14:00,35.6,15.3,30.27,West,277,0.0,0.0,43,0.00,,---,0.00,VWS V14.01,2013-03-15 02:14:00,
2013-03-14 22:15:00,35.6,15.3,30.27,West,277,0.0,0.0,43,0.00,,---,0.00,VWS V14.01,2013-03-15 02:15:00,
2013-03-14 22:18:00,35.4,15.2,30.27,West,277,0.0,0.0,43,0.00,,---,0.00,VWS V14.01,2013-03-15 02:18:00,
2013-03-14 22:19:00,35.4,15.2,30.27,West,277,0.0,0.0,43,0.00,,---,0.00,VWS V14.01,2013-03-15 02:19:00,
2013-03-14 22:20:00,35.4,15.2,30.27,West,277,0.0,0.0,43,0.00,,---,0.00,VWS V14.01,2013-03-15 02:20:00,
2013-03-14 22:23:00,35.4,15.2,30.27,West,277,0.0,0.0,43,0.00,,---,0.00,VWS V14.01,2013-03-15 02:23:00,
2013-03-14 22:24:00,35.4,15.2,30.27,West,277,0.0,0.0,43,0.00,,---,0.00,VWS V14.01,2013-03-15 02:24:00,
2013-03-14 22:25:00,35.4,15.2,30.27,West,277,0.0,0.0,43,0.00,,---,0.00,VWS V14.01,2013-03-15 02:25:00,
2013-03-14 22:28:00,35.1,15.4,30.27,West,277,0.0,0.0,44,0.00,,---,0.00,VWS V14.01,2013-03-15 02:28:00,
2013-03-14 22:29:00,35.1,15.4,30.27,West,277,0.0,0.0,44,0.00,,---,0.00,VWS V14.01,2013-03-15 02:29:00,
2013-03-14 22:30:00,35.1,15.4,30.27,West,277,0.0,0.0,44,0.00,,---,0.00,VWS V14.01,2013-03-15 02:30:00,
2013-03-14 22:31:00,35.1,15.4,30.27,West,277,0.0,0.0,44,0.00,,---,0.00,VWS V14.01,2013-03-15 02:31:00,
2013-03-14 22:33:00,34.9,15.2,30.27,West,277,0.0,0.0,44,0.00,,---,0.00,VWS V14.01,2013-03-15 02:33:00,
2013-03-14 22:34:00,34.9,15.2,30.27,West,277,0.0,0.0,44,0.00,,---,0.00,VWS V14.01,2013-03-15 02:34:00,
2013-03-14 22:35:00,34.9,15.2,30.27,West,277,0.0,0.0,44,0.00,,---,0.00,VWS V14.01,2013-03-15 02:35:00,
2013-03-14 22:36:00,34.9,15.2,30.27,West,277,0.0,0.0,44,0.00,,---,0.00,VWS V14.01,2013-03-15 02:36:00,
2013-03-14 22:38:00,34.9,15.2,30.27,West,277,0.0,0.0,44,0.00,,---,0.00,VWS V14.01,2013-03-15 02:38:00,
2013-03-14 22:39:00,34.9,15.2,30.27,West,277,0.0,0.0,44,0.00,,---,0.00,VWS V14.01,2013-03-15 02:39:00,
2013-03-14 22:40:00,34.9,15.2,30.27,West,277,0.0,0.0,44,0.00,,---,0.00,VWS V14.01,2013-03-15 02:40:00,
2013-03-14 22:41:00,34.9,15.2,30.27,West,277,0.0,0.0,44,0.00,,---,0.00,VWS V14.01,2013-03-15 02:41:00,
2013-03-14 22:44:00,34.9,15.2,30.27,West,277,0.0,0.0,44,0.00,,---,0.00,VWS V14.01,2013-03-15 02:44:00,
2013-03-14 22:45:00,34.9,15.2,30.27,West,277,0.0,0.0,44,0.00,,---,0.00,VWS V14.01,2013-03-15 02:45:00,
2013-03-14 22:46:00,34.9,15.2,30.27,West,277,0.0,0.0,44,0.00,,---,0.00,VWS V14.01,2013-03-15 02:46:00,
2013-03-14 22:49:00,34.9,15.2,30.27,West,277,0.0,0.0,44,0.00,,---,0.00,VWS V14.01,2013-03-15 02:49:00,
2013-03-14 22:50:00,34.9,15.2,30.27,West,277,0.0,0.0,44,0.00,,---,0.00,VWS V14.01,2013-03-15 02:50:00,
2013-03-14 22:51:00,34.9,15.2,30.27,West,277,0.0,0.0,44,0.00,,---,0.00,VWS V14.01,2013-03-15 02:51:00,
2013-03-14 22:54:00,34.9,15.2,30.27,West,277,0.0,0.0,44,0.00,,---,0.00,VWS V14.01,2013-03-15 02:54:00,
2013-03-14 22:55:00,34.9,15.2,30.27,West,277,0.0,0.0,44,0.00,,---,0.00,VWS V14.01,2013-03-15 02:55:00,
2013-03-14 22:56:00,34.9,15.2,30.27,West,277,0.0,0.0,44,0.00,,---,0.00,VWS V14.01,2013-03-15 02:56:00,
2013-03-14 22:59:00,34.9,15.2,30.27,West,277,0.0,0.0,44,0.00,,---,0.00,VWS V14.01,2013-03-15 02:59:00,
2013-03-14 23:00:00,34.9,15.2,30.27,West,277,0.0,0.0,44,0.00,,---,0.00,VWS V14.01,2013-03-15 03:00:00,
2013-03-14 23:01:00,34.9,15.2,30.27,West,278,0.0,0.0,44,0.00,,---,0.00,VWS V14.01,2013-03-15 03:01:00,
2013-03-14 23:04:00,34.9,15.2,30.24,WNW,291,0.0,0.0,44,0.00,,---,0.00,VWS V14.01,2013-03-15 03:04:00,
2013-03-14 23:05:00,34.9,15.2,30.24,WNW,291,0.0,0.0,44,0.00,,---,0.00,VWS V14.01,2013-03-15 03:05:00,
2013-03-14 23:06:00,34.9,15.2,30.24,WNW,291,0.0,0.0,44,0.00,,---,0.00,VWS V14.01,2013-03-15 03:06:00,
2013-03-14 23:09:00,34.9,15.2,30.24,WNW,291,0.0,0.0,44,0.00,,---,0.00,VWS V14.01,2013-03-15 03:09:00,
2013-03-14 23:10:00,34.9,15.2,30.24,WNW,300,0.0,0.0,44,0.00,,---,0.00,VWS V14.01,2013-03-15 03:10:00,
2013-03-14 23:11:00,34.9,15.2,30.24,WNW,300,0.0,0.0,44,0.00,,---,0.00,VWS V14.01,2013-03-15 03:11:00,
2013-03-14 23:14:00,34.9,15.2,30.24,WNW,300,0.0,0.0,44,0.00,,---,0.00,VWS V14.01,2013-03-15 03:14:00,
2013-03-14 23:15:00,34.9,15.2,30.24,WNW,300,0.0,0.0,44,0.00,,---,0.00,VWS V14.01,2013-03-15 03:15:00,
2013-03-14 23:16:00,35.2,16.0,30.24,WNW,300,0.0,0.0,45,0.00,,---,0.00,VWS V14.01,2013-03-15 03:16:00,
2013-03-14 23:19:00,35.4,16.2,30.24,WNW,300,0.0,0.0,45,0.00,,---,0.00,VWS V14.01,2013-03-15 03:19:00,
2013-03-14 23:20:00,35.4,16.2,30.24,WNW,300,0.0,0.0,45,0.00,,---,0.00,VWS V14.01,2013-03-15 03:20:00,
2013-03-14 23:21:00,35.4,16.2,30.24,WNW,300,0.0,0.0,45,0.00,,---,0.00,VWS V14.01,2013-03-15 03:21:00,
2013-03-14 23:24:00,35.4,16.2,30.27,WNW,300,0.0,0.0,45,0.00,,---,0.00,VWS V14.01,2013-03-15 03:24:00,
2013-03-14 23:25:00,35.4,16.2,30.27,WNW,300,0.0,0.0,45,0.00,,---,0.00,VWS V14.01,2013-03-15 03:25:00,
2013-03-14 23:26:00,35.4,16.2,30.27,WNW,300,0.0,0.0,45,0.00,,---,0.00,VWS V14.01,2013-03-15 03:26:00,
2013-03-14 23:29:00,35.4,16.2,30.27,WNW,300,0.0,0.0,45,0.00,,---,0.00,VWS V14.01,2013-03-15 03:29:00,
2013-03-14 23:30:00,35.4,16.2,30.27,WNW,300,0.0,0.0,45,0.00,,---,0.00,VWS V14.01,2013-03-15 03:30:00,
2013-03-14 23:31:00,35.4,16.2,30.27,WNW,300,0.0,0.0,45,0.00,,---,0.00,VWS V14.01,2013-03-15 03:31:00,
2013-03-14 23:34:00,35.1,15.4,30.27,WNW,300,0.0,0.0,44,0.00,,---,0.00,VWS V14.01,2013-03-15 03:34:00,
2013-03-14 23:35:00,35.1,15.4,30.27,WNW,300,0.0,0.0,44,0.00,,---,0.00,VWS V14.01,2013-03-15 03:35:00,
2013-03-14 23:36:00,35.1,15.4,30.27,WNW,300,0.0,0.0,44,0.00,,---,0.00,VWS V14.01,2013-03-15 03:36:00,
2013-03-14 23:39:00,35.1,15.4,30.27,WNW,300,0.0,0.0,44,0.00,,---,0.00,VWS V14.01,2013-03-15 03:39:00,
2013-03-14 23:40:00,35.1,15.4,30.27,WNW,300,0.0,0.0,44,0.00,,---,0.00,VWS V14.01,2013-03-15 03:40:00,
2013-03-14 23:41:00,34.9,15.2,30.27,WNW,302,0.0,0.0,44,0.00,,---,0.00,VWS V14.01,2013-03-15 03:41:00,
2013-03-14 23:44:00,34.9,15.7,30.27,NW,310,0.0,0.0,45,0.00,,---,0.00,VWS V14.01,2013-03-15 03:44:00,
2013-03-14 23:45:00,34.7,15.6,30.27,NW,310,0.0,0.0,45,0.00,,---,0.00,VWS V14.01,2013-03-15 03:45:00,
2013-03-14 23:46:00,34.7,15.6,30.27,NW,310,0.0,0.0,45,0.00,,---,0.00,VWS V14.01,2013-03-15 03:46:00,
2013-03-14 23:49:00,34.7,15.6,30.27,NW,310,0.0,0.0,45,0.00,,---,0.00,VWS V14.01,2013-03-15 03:49:00,
2013-03-14 23:50:00,34.7,15.6,30.27,NW,310,0.0,0.0,45,0.00,,---,0.00,VWS V14.01,2013-03-15 03:50:00,
2013-03-14 23:52:00,34.7,15.6,30.27,NW,310,0.0,0.0,45,0.00,,---,0.00,VWS V14.01,2013-03-15 03:52:00,
2013-03-14 23:55:00,34.9,15.7,30.27,NW,319,0.0,0.0,45,0.00,,---,0.00,VWS V14.01,2013-03-15 03:55:00,
2013-03-14 23:57:00,34.9,15.7,30.27,NW,319,0.0,0.0,45,0.00,,---,0.00,VWS V14.01,2013-03-15 03:57:00,